[{"header": {"dx": 0.06612293990616946, "dy": 0.0552356325346848, "nx": 98, "ny": 59, "la1": 35.046912555036876, "la2": 31.78801023549047, "lo1": -121.43107172385933, "lo2": -114.95102361305473, "refTime": "2026041805", "parameterCategory": 1, "parameterNumber": 2}, "data": [7.6, 7.96, 7.6, 7.61, 7.33, 6.98, 6.69, 6.06, 5.71, 5.08, 4.43, 3.73, 1.86, 1.6, 0.63, 0.0, 0.0, 0.0, 0.0, 0.0, 0.89, 1.79, 2.6, 2.6, 3.47, 3.95, 4.41, 4.66, 4.8, 5.43, 5.82, 5.72, 6.08, 6.08, 6.08, 6.08, 6.07, 6.0, 4.41, 3.13, 3.07, 2.8, 2.86, 3.93, 4.54, 5.46, 6.44, 6.7, 7.28, 7.03, 4.66, 2.4, 2.84, 3.84, 3.79, 3.79, 4.81, 5.46, 6.4, 6.94, 7.21, 6.79, 6.07, 3.95, 2.8, 3.45, 3.07, 1.58, -0.0, -0.0, -0.0, -0.0, -0.95, -1.7, -1.7, -0.95, -0.0, -0.0, 0.63, 0.63, -0.0, -0.0, 0.45, -0.45, -0.95, -0.99, -0.54, 0.0, 0.0, 1.13, 2.2, 2.88, 2.8, 2.88, 2.11, 2.0, 1.84, 2.21, 7.6, 7.6, 7.33, 7.61, 6.97, 6.98, 6.69, 6.35, 5.44, 5.08, 4.45, 3.48, 2.23, 1.86, 2.8, 1.58, 0.0, 0.0, 0.0, 0.0, 0.0, 0.95, 2.24, 2.68, 3.51, 3.58, 3.04, 3.04, 3.2, 3.22, 4.12, 4.81, 4.43, 4.11, 4.12, 5.05, 5.6, 6.36, 5.31, 3.58, 3.07, 3.2, 3.58, 4.36, 5.37, 6.01, 6.68, 7.06, 6.7, 4.24, 2.6, 2.84, 4.19, 4.12, 3.48, 3.79, 4.81, 6.07, 6.64, 7.35, 7.47, 7.71, 6.07, 3.74, 2.5, 3.49, 3.84, 1.88, -0.0, -0.0, -0.0, -0.0, -0.99, -2.12, -2.12, -1.7, -0.63, -0.0, 0.63, 0.63, -0.0, -0.0, 0.45, -0.45, -0.95, -0.99, -0.54, 0.0, 0.0, 1.13, 2.2, 2.88, 2.8, 2.88, 2.11, 2.0, 1.84, 2.21, 7.6, 7.33, 7.61, 6.97, 6.71, 6.7, 6.35, 6.35, 5.72, 5.38, 4.45, 3.83, 2.5, 2.4, 2.12, 1.6, 0.95, 0.0, 0.0, 0.0, 0.0, 0.0, 0.8, 2.24, 3.13, 3.51, 2.8, 2.6, 2.12, 1.86, 2.23, 2.5, 2.86, 2.5, 2.91, 3.51, 4.87, 6.66, 5.81, 3.97, 3.6, 3.78, 5.06, 5.3, 5.21, 5.59, 5.37, 4.46, 3.51, 3.04, 3.49, 4.46, 4.09, 3.84, 3.48, 3.48, 4.46, 5.69, 6.94, 7.47, 8.14, 7.71, 6.07, 3.22, 2.15, 3.07, 4.01, 3.43, 1.84, 0.65, -0.0, -0.0, -0.71, -1.49, -2.24, -1.79, -0.89, -0.0, 0.45, 0.0, 0.0, 0.0, 0.45, 0.0, -0.63, -0.6, -0.6, 0.0, 0.53, 2.07, 3.64, 3.0, 3.0, 2.2, 1.35, 0.66, 1.16, 1.61, 7.33, 7.33, 6.97, 6.71, 6.98, 6.34, 6.35, 6.35, 5.72, 5.1, 4.47, 4.12, 3.16, 1.9, 2.23, 2.12, 1.7, 0.8, 0.0, -0.54, -0.71, -0.8, 0.0, 0.0, 1.34, 2.12, 2.4, 3.04, 2.6, 1.79, 1.34, 1.34, 0.89, 0.95, 2.12, 3.04, 3.95, 6.17, 6.55, 5.86, 5.46, 5.43, 4.43, 4.46, 4.46, 4.46, 3.74, 3.13, 3.74, 4.8, 4.66, 4.8, 3.83, 3.16, 2.79, 3.79, 4.84, 6.0, 6.94, 7.71, 8.36, 7.45, 4.93, 2.15, 2.3, 3.72, 3.9, 4.29, 4.71, 3.43, 1.33, -0.0, -0.0, -0.99, -1.79, -2.0, -1.26, 0.0, 0.89, 0.0, -0.4, 0.0, 0.63, 0.0, -0.63, -0.63, 0.0, 0.57, 1.84, 3.38, 4.29, 3.11, 2.29, 1.41, 0.0, 0.0, 0.65, 1.9, 6.96, 6.97, 6.97, 6.98, 6.34, 6.34, 6.35, 6.08, 5.72, 5.38, 4.75, 3.85, 3.16, 1.9, 1.9, 1.9, 1.9, 1.24, 0.0, -1.2, -1.49, -1.58, -1.6, -0.89, -0.45, 0.45, 1.34, 2.24, 2.68, 2.24, 1.26, 0.57, 0.0, 0.0, 0.96, 2.99, 4.11, 5.59, 6.44, 5.72, 4.43, 2.86, 3.07, 3.58, 4.47, 4.47, 4.73, 4.93, 5.34, 5.34, 4.4, 3.83, 2.86, 2.41, 3.07, 4.46, 5.43, 6.0, 6.94, 8.19, 8.9, 6.66, 2.86, 1.49, 2.73, 4.74, 4.65, 4.36, 4.65, 4.36, 3.16, 1.4, -0.0, -0.0, -0.95, -1.7, -1.58, -0.57, 0.6, 0.0, -0.57, 0.0, 0.0, 0.0, -0.6, -0.71, 0.0, 1.84, 2.98, 4.29, 3.64, 3.07, 1.8, 0.0, -1.2, 0.0, 1.2, 1.9, 6.96, 6.97, 6.71, 6.34, 6.34, 6.08, 6.35, 5.72, 5.72, 5.1, 4.47, 3.85, 2.41, 1.9, 1.9, 1.9, 1.61, 1.49, 0.53, -0.7, -2.2, -2.07, -2.21, -1.6, 0.0, 0.0, 0.0, 1.49, 1.74, 2.23, 1.26, 0.0, 0.0, 0.0, 0.67, 1.4, 2.35, 4.56, 5.3, 2.79, 1.26, 1.34, 2.68, 4.02, 5.36, 5.64, 5.43, 5.43, 5.43, 4.46, 3.83, 3.22, 2.84, 2.41, 3.16, 5.43, 6.28, 6.28, 7.45, 9.26, 8.9, 4.66, 1.4, 2.07, 3.07, 4.43, 5.37, 5.37, 4.46, 4.46, 3.6, 2.15, 0.57, -0.0, -0.0, 0.45, -0.63, -0.57, 0.0, 0.63, -0.57, -0.53, 0.0, 0.0, -0.65, 0.0, 0.63, 2.2, 3.69, 3.55, 2.73, 2.73, 1.33, -1.58, -2.15, 0.0, 1.61, 2.21, 6.7, 6.97, 6.33, 6.34, 6.34, 6.08, 6.35, 5.98, 5.72, 5.09, 4.73, 3.85, 2.41, 1.86, 3.48, 1.49, 1.4, 1.6, 1.49, 0.0, -0.63, -2.2, -2.2, -1.55, 0.0, 0.0, 0.0, 0.0, 1.05, 0.0, 0.0, 0.0, 0.0, 1.49, 2.11, 1.36, 1.55, 3.2, 3.49, 1.26, 0.0, 0.0, 2.12, 3.04, 3.58, 4.24, 5.46, 6.08, 5.72, 6.13, 4.65, 2.84, 3.84, 4.19, 4.8, 5.59, 6.07, 6.21, 7.15, 8.49, 7.11, 3.22, 1.4, 1.4, 2.41, 3.79, 5.43, 5.43, 4.4, 4.41, 4.02, 3.13, 1.34, 0.45, 0.45, 0.0, 0.45, 0.0, 0.0, 0.8, 0.0, 0.0, 0.0, 0.0, 0.0, 0.0, 1.49, 2.31, 3.09, 2.2, 1.98, 2.72, 0.0, -2.91, -1.9, 0.61, 2.07, 2.51, 6.97, 6.33, 6.61, 6.34, 6.08, 6.08, 5.7, 5.7, 5.72, 5.08, 4.71, 3.42, 2.3, 2.21, 4.65, 1.9, 1.88, 2.41, 2.07, 2.07, 1.2, 0.53, 0.0, 0.0, 0.0, 0.0, 0.0, 0.0, -0.96, -0.96, -0.99, -0.85, 0.0, 1.99, 3.0, 2.26, 1.4, 1.55, 2.0, 1.58, 0.0, 0.0, 0.0, 0.95, 1.34, 1.58, 2.84, 5.46, 6.7, 6.7, 3.49, 3.84, 4.81, 5.82, 5.75, 5.75, 5.81, 5.81, 7.15, 6.26, 3.74, 1.58, 0.54, 1.6, 2.41, 3.22, 5.34, 5.77, 4.92, 4.41, 3.97, 2.91, 1.58, 0.0, 0.0, 0.0, 0.0, 0.45, 0.0, 1.24, 2.21, 0.0, 0.0, 0.0, 0.0, 0.65, 1.36, 1.49, 1.4, 1.55, 2.12, 0.64, -2.53, -3.32, -1.2, 1.13, 2.48, 2.79, 6.58, 6.33, 6.34, 6.34, 6.08, 5.7, 5.7, 5.7, 5.7, 5.32, 4.44, 3.37, 2.12, 2.47, 2.2, 1.6, 1.6, 2.07, 1.88, 1.49, 1.86, 2.54, 3.74, 1.88, 0.66, 0.0, 0.0, 0.0, -1.83, -1.98, -1.01, 0.0, 1.02, 1.09, 1.52, 1.45, 1.03, 1.1, 0.0, 0.0, -0.8, -1.34, -1.34, -0.89, -0.45, -0.0, 1.2, 2.97, 6.0, 6.44, 6.87, 5.43, 5.72, 6.0, 5.75, 5.31, 5.36, 5.81, 4.92, 2.68, 1.26, -0.0, 0.65, 1.6, 3.22, 4.24, 5.36, 6.26, 5.16, 4.8, 2.86, 2.86, 1.61, 0.0, -0.54, -1.2, -1.58, -1.26, 0.0, 1.24, 2.5, 1.6, 0.57, 0.0, 0.69, 1.32, 1.32, 1.52, 1.26, 0.67, 0.0, -1.6, -3.72, -3.14, -0.59, 1.41, 2.73, 3.15, 6.33, 6.33, 6.34, 6.34, 6.34, 6.08, 5.7, 5.7, 5.7, 5.29, 4.63, 4.42, 4.0, 2.8, 1.58, 1.65, 2.4, 1.75, 1.01, 1.1, 0.96, 2.16, 4.11, 3.79, 1.83, 0.88, 0.87, 0.0, -0.96, -1.07, 0.0, 1.04, 0.0, 0.0, 0.0, 0.0, 0.76, 0.0, -0.76, -0.99, -1.58, -1.34, -1.34, -0.89, 0.45, 0.45, 0.63, 1.34, 2.6, 4.84, 5.77, 6.39, 6.06, 5.46, 4.93, 4.41, 4.47, 3.95, 1.79, 0.6, 0.76, 0.88, 2.12, 2.3, 3.83, 3.07, 4.47, 4.92, 3.07, 1.9, 1.61, 1.88, 1.0, 0.0, 0.0, -1.0, -1.88, -1.84, -0.61, 0.0, 1.61, 2.68, 2.53, 1.84, 1.13, 1.27, 1.8, 1.6, 1.16, 0.0, -1.58, -3.2, -3.48, -2.73, 0.0, 1.35, 3.11, 3.38, 6.33, 6.33, 6.08, 6.34, 6.34, 6.34, 6.34, 5.95, 5.95, 5.29, 5.29, 5.29, 5.06, 3.97, 2.44, 1.6, 2.39, 1.76, 1.67, 1.67, 1.58, 1.63, 3.25, 3.32, 3.52, 1.84, 0.88, 0.0, 0.0, 0.0, 0.88, 0.61, 0.0, -0.57, -1.33, -0.87, -0.85, -0.95, -1.24, -0.57, -0.63, -0.45, 0.45, 1.34, 1.34, 0.45, 0.45, 0.89, 1.2, 2.21, 2.98, 4.65, 4.74, 4.09, 3.51, 3.13, 3.58, 2.68, 0.95, -0.0, 0.74, 1.55, 2.51, 2.29, 2.4, 2.15, 2.21, 2.21, 0.99, 0.45, 0.0, 0.6, 0.63, 0.63, 0.63, 0.0, -1.2, -2.07, -1.27, -0.59, 0.0, 1.61, 3.07, 3.82, 3.39, 3.39, 3.39, 3.39, 2.6, 1.34, -0.45, -2.15, -2.48, -2.11, 0.0, 1.45, 2.72, 2.88, 6.33, 6.33, 6.33, 6.08, 6.08, 6.08, 6.08, 5.69, 5.69, 5.69, 5.04, 5.04, 5.06, 5.08, 4.46, 3.6, 2.73, 2.28, 2.33, 1.74, 2.23, 2.25, 2.15, 2.28, 2.12, 2.32, 1.99, 0.51, 0.0, 0.71, 1.26, 1.34, 0.95, 0.45, 0.6, -0.8, -1.6, -1.34, -0.89, 0.0, 0.63, 0.63, 0.63, 1.79, 1.79, 0.0, 0.0, 0.63, 0.95, 1.26, 1.24, 2.21, 1.9, 2.17, 2.24, 2.24, 2.24, 1.79, 0.57, -0.0, 0.8, 2.23, 2.31, 0.83, -0.0, -0.0, 0.66, 1.33, 1.4, 0.65, 0.57, 0.99, 1.26, 1.2, 0.89, 0.63, 0.0, -0.53, -1.27, -0.7, -0.57, 0.0, 1.61, 3.82, 3.98, 4.47, 4.92, 4.47, 4.02, 3.58, 2.68, 0.57, -1.16, -1.23, 0.0, 1.45, 1.36, 1.41, 6.33, 6.33, 6.33, 6.33, 6.33, 6.33, 6.33, 5.69, 5.69, 5.69, 5.69, 5.04, 5.29, 5.72, 5.45, 4.81, 3.84, 3.21, 2.86, 2.8, 2.83, 2.86, 2.89, 2.86, 2.79, 3.2, 2.97, 2.91, 2.17, 1.34, 1.34, 1.79, 1.7, 1.79, 1.79, 0.95, -0.0, -0.0, -0.0, -0.0, 0.63, 0.95, 1.2, 0.45, 0.0, 0.0, 0.0, 0.0, 0.45, 1.34, 0.89, 0.89, 0.89, 0.89, 0.89, 0.95, 0.95, 1.2, 0.6, -0.0, -0.0, 1.49, 1.49, -0.0, -1.52, -1.41, -0.0, 0.65, 1.49, 2.15, 2.07, 2.84, 2.5, 1.86, 1.34, 1.2, 1.2, 0.57, 0.0, 0.0, -1.35, -0.63, 0.63, 1.27, 3.32, 3.97, 5.32, 5.32, 4.43, 4.47, 4.43, 2.91, 1.24, 0.0, 0.63, 0.67, 0.67, 0.0, 6.33, 6.33, 6.33, 6.33, 6.33, 6.33, 6.33, 5.69, 5.69, 5.69, 5.69, 5.45, 5.29, 5.72, 5.72, 5.44, 5.06, 4.12, 3.85, 3.83, 4.05, 4.08, 4.1, 3.79, 3.88, 4.77, 4.89, 5.34, 4.92, 3.58, 2.24, 0.89, 2.68, 1.34, 1.2, 0.6, 0.57, -0.0, -0.0, -0.0, 0.63, 0.89, 0.89, 2.68, 0.0, 0.0, 0.0, 0.0, 0.0, 0.6, 0.8, 0.71, 0.0, 0.45, 0.0, 0.63, 0.0, 0.0, 0.0, -0.0, -1.7, -0.0, -0.0, -1.14, -1.63, -2.2, -1.24, -0.0, 2.8, 2.21, 3.16, 3.49, 3.32, 2.68, 1.7, 1.26, 1.26, 1.26, 0.99, 0.71, 0.0, 0.0, 0.0, 0.67, 2.07, 3.14, 4.93, 4.73, 4.43, 4.43, 5.32, 3.98, 3.32, 2.21, 1.8, 1.27, 0.0, 0.0, 6.31, 6.31, 6.31, 6.31, 6.31, 6.58, 6.33, 5.92, 5.69, 5.69, 5.69, 5.45, 5.7, 5.72, 5.72, 5.72, 5.71, 5.06, 4.74, 4.75, 5.08, 5.06, 5.06, 5.29, 5.37, 5.81, 6.47, 6.51, 6.61, 5.34, 3.07, 1.34, 1.79, 1.9, 1.4, -0.0, 1.27, 0.71, 1.4, 0.63, 0.89, 2.68, 2.4, 1.58, 1.58, 1.58, 0.0, 1.34, 1.79, 0.63, 0.71, 1.74, 1.58, -0.0, -0.0, 0.89, 0.6, 0.0, 0.0, -0.0, -1.49, -0.99, -0.85, -0.71, -1.0, -1.58, -1.34, -0.45, 0.0, 0.8, 1.9, 3.51, 4.92, 2.91, 1.9, 1.24, 1.24, 1.24, 1.26, 1.49, 1.7, 1.86, 1.16, 0.73, 0.0, 1.47, 2.73, 3.72, 4.24, 4.41, 4.43, 4.73, 4.4, 3.45, 2.86, 0.0, -0.63, -0.63, 6.31, 6.31, 6.31, 6.31, 6.7, 6.31, 6.31, 5.92, 5.69, 5.69, 5.69, 5.04, 5.06, 5.72, 5.72, 5.72, 6.34, 5.71, 5.65, 5.06, 5.65, 5.65, 6.15, 6.03, 6.28, 6.6, 6.6, 7.26, 7.26, 6.16, 3.99, 2.68, 1.7, 1.9, 1.4, -0.0, -0.0, 0.65, 2.84, 2.68, 1.34, 1.34, 2.24, 2.24, 2.68, 2.24, 1.58, -0.0, 1.58, 2.24, 2.8, 2.0, 2.24, 1.86, 1.58, 1.6, 2.12, 2.23, 1.34, -0.0, -0.0, -0.0, -0.0, -0.0, 0.45, 0.0, 0.45, -0.63, -0.89, -0.0, 1.79, 4.41, 5.34, 3.16, 1.33, 0.61, 0.65, 0.99, 1.2, 1.34, 1.7, 2.6, 2.68, 2.4, 1.88, 0.7, 1.36, 2.2, 2.79, 3.45, 4.0, 4.66, 3.45, 3.6, 3.07, 1.2, 0.0, 0.0, 6.31, 6.56, 6.56, 6.96, 6.96, 6.31, 6.31, 5.67, 5.69, 5.69, 5.69, 5.29, 5.32, 5.32, 5.46, 5.72, 6.06, 6.04, 6.28, 5.98, 5.65, 5.88, 6.15, 6.41, 6.8, 7.09, 7.58, 7.74, 7.74, 7.4, 6.23, 4.47, 3.13, 3.13, 0.95, -0.0, 0.57, 1.58, 2.24, 4.02, 2.8, 0.89, 1.79, 0.89, 2.68, 2.24, -0.0, -0.0, 1.4, 2.8, 3.2, 3.2, 3.72, 3.48, 4.09, 4.77, 5.81, 5.81, 4.65, 2.6, 1.3, 1.41, 2.53, 3.2, 3.58, 1.34, 1.34, 0.0, -0.95, 0.0, 1.58, 2.8, 2.53, 1.8, 0.63, 0.0, 0.0, 0.0, 0.0, 0.0, 0.89, 1.7, 2.63, 3.13, 3.13, 2.6, 0.0, 0.63, 2.0, 3.48, 5.01, 4.09, 3.14, 3.72, 4.0, 2.53, 1.33, 1.33, 6.29, 6.29, 6.29, 6.96, 6.96, 6.56, 6.31, 5.67, 5.92, 5.69, 5.69, 5.29, 5.06, 5.08, 5.34, 5.45, 6.06, 6.34, 6.32, 6.57, 6.23, 6.23, 6.15, 6.28, 7.09, 7.74, 8.48, 8.48, 8.21, 8.17, 7.4, 6.16, 4.47, 3.58, 2.6, 0.63, 0.89, 1.79, 2.54, 2.54, 1.6, 0.63, 0.63, 0.95, 2.24, 1.2, -0.0, 1.4, 1.6, 2.53, 3.16, 3.16, 3.48, 3.48, 3.79, 4.8, 5.2, 5.37, 4.43, 3.76, 3.79, 3.72, 3.82, 3.82, 4.47, 1.79, 1.79, 1.6, 0.0, 0.0, 0.0, 0.63, 0.95, 0.0, 0.0, -1.27, -1.84, -1.24, -0.63, 0.0, 0.0, 1.26, 2.17, 3.53, 3.13, 2.17, 1.2, 0.0, 0.76, 2.29, 4.43, 4.09, 3.49, 3.48, 4.12, 3.49, 2.79, 2.79, 6.29, 6.29, 6.29, 6.7, 6.7, 6.56, 6.31, 5.67, 5.92, 5.69, 5.04, 5.29, 5.06, 5.08, 5.09, 5.76, 5.72, 6.34, 6.28, 6.79, 7.23, 7.35, 6.23, 5.46, 5.46, 7.4, 7.08, 7.6, 7.47, 7.81, 7.09, 5.7, 4.47, 3.53, 2.63, 2.24, 2.6, 3.07, 2.23, 2.23, 1.86, 1.6, 1.2, 2.68, 2.4, 1.6, 1.6, 1.6, 2.53, 2.84, 3.16, 3.48, 3.48, 3.79, 3.49, 4.43, 5.01, 5.01, 4.65, 3.79, 4.09, 3.82, 3.39, 1.79, 1.79, 1.2, 0.95, 1.79, 3.49, 2.98, 3.13, 4.87, 6.98, 4.92, 3.07, 0.71, -1.16, -2.3, -1.33, -0.65, 0.61, 1.61, 2.15, 2.53, 3.07, 3.07, 2.53, 1.8, 0.74, 1.32, 2.29, 3.43, 4.12, 3.79, 3.79, 3.84, 3.49, 3.49, 6.53, 6.53, 6.53, 6.94, 6.29, 6.56, 6.31, 5.67, 5.92, 5.69, 5.04, 5.29, 5.06, 5.08, 5.08, 5.09, 5.45, 5.09, 4.83, 5.43, 7.06, 7.44, 6.87, 5.69, 5.3, 5.69, 6.06, 6.79, 7.35, 7.23, 6.1, 4.44, 3.53, 2.91, 2.63, 2.24, 2.6, 2.91, 3.39, 3.39, 2.91, 3.07, 3.07, 3.13, 3.07, 3.35, 2.84, 2.84, 2.53, 2.84, 2.84, 2.48, 2.2, 2.4, 1.4, 2.84, 5.06, 2.84, 3.2, 4.24, 3.82, 3.13, 3.13, 2.68, -0.0, -0.8, -0.8, 0.95, 3.13, 5.31, 6.79, 9.33, 12.58, 13.77, 12.04, 7.71, 3.22, 0.0, -1.52, 0.0, 0.0, 1.13, 1.84, 1.84, 2.23, 2.79, 3.07, 2.91, 1.27, 0.63, 0.69, 3.0, 4.36, 3.38, 3.12, 3.72, 4.46, 4.46, 6.53, 6.53, 6.94, 6.94, 6.29, 6.56, 6.31, 5.67, 5.92, 5.26, 5.04, 5.29, 5.06, 5.32, 5.08, 5.72, 5.45, 5.09, 4.45, 5.49, 6.53, 6.64, 6.64, 6.04, 6.04, 6.32, 5.69, 6.28, 6.28, 5.93, 4.4, 3.58, 2.91, 2.91, 2.4, 2.17, 2.24, 2.63, 3.07, 3.09, 3.09, 3.13, 3.58, 3.54, 3.82, 3.72, 2.84, 2.53, 2.53, 2.53, 2.53, 1.27, 1.19, 1.3, 2.6, 1.88, 2.98, 3.72, 4.29, 3.2, 2.68, 2.68, 2.68, 1.34, -0.6, -1.58, -0.8, -0.0, 1.8, 3.72, 5.37, 8.3, 11.45, 13.39, 13.21, 11.34, 5.64, 0.66, -2.2, -2.12, 0.0, 0.0, 1.4, 2.5, 2.4, 2.91, 2.68, 2.68, 3.13, 1.88, 0.63, 2.12, 3.79, 3.08, 2.6, 3.32, 3.78, 3.78, 6.53, 6.53, 6.94, 6.53, 6.29, 6.29, 5.89, 5.67, 5.92, 5.26, 5.04, 5.29, 5.06, 5.06, 5.32, 5.72, 5.72, 5.72, 5.72, 6.08, 6.06, 6.34, 6.34, 6.64, 6.92, 6.87, 6.23, 6.15, 5.59, 5.08, 3.87, 3.58, 2.91, 2.4, 2.4, 2.17, 2.24, 2.68, 2.63, 3.07, 3.09, 3.09, 3.13, 3.09, 3.32, 2.68, 2.53, 2.8, 2.21, 1.4, 1.6, 1.27, 1.08, 1.19, 2.2, 2.6, 2.4, 3.2, 3.45, 2.53, 0.0, 0.0, 0.0, -0.6, -0.85, -0.85, -0.85, -0.57, -0.0, -0.0, 0.99, 4.89, 6.94, 6.71, 6.32, 7.55, 7.85, 4.94, 0.0, -2.66, -2.29, -0.59, 0.0, 1.58, 2.4, 2.63, 2.24, 2.17, 3.07, 3.82, 3.16, 1.88, 2.8, 2.66, 1.76, 1.76, 2.73, 2.73, 6.53, 6.53, 6.53, 6.53, 6.29, 6.29, 5.89, 5.67, 5.69, 5.26, 5.04, 5.29, 5.06, 5.06, 5.32, 5.72, 5.72, 5.72, 6.35, 6.97, 6.64, 6.32, 6.32, 6.04, 6.92, 7.21, 6.98, 6.95, 6.28, 5.4, 4.88, 4.02, 3.09, 2.6, 2.17, 2.17, 2.24, 2.24, 2.6, 2.63, 2.63, 2.68, 2.68, 2.6, 2.4, 2.15, 2.8, 2.4, 1.9, 1.4, 1.13, 1.27, 1.41, 1.08, 1.19, 1.19, -0.0, 1.6, 3.45, 1.6, 0.45, -1.34, -1.2, -0.71, -0.76, -0.76, -0.65, -0.0, -0.0, -0.0, 0.45, 0.0, -0.0, 0.0, 1.05, 3.6, 5.86, 6.44, 3.38, 0.0, -3.08, -2.88, -0.59, 0.0, 1.16, 1.88, 2.21, 2.23, 2.73, 4.43, 4.73, 4.07, 2.44, 1.41, 0.66, 1.11, 2.44, 2.44, 6.53, 6.53, 6.53, 6.94, 6.29, 6.29, 5.89, 5.67, 5.69, 5.26, 5.04, 5.29, 5.06, 5.06, 5.32, 5.72, 6.0, 6.06, 6.35, 6.67, 7.25, 6.87, 6.87, 6.28, 6.59, 6.87, 7.35, 7.48, 6.8, 6.3, 5.24, 4.44, 3.58, 2.68, 2.24, 1.79, 1.79, 1.79, 2.24, 2.17, 2.24, 2.24, 2.24, 2.17, 1.86, 1.86, 2.4, 2.4, 1.9, 1.4, 1.13, 1.13, 1.27, -0.0, -0.0, -0.0, -0.0, -0.0, 0.76, 1.8, 0.6, -0.89, -1.2, -1.49, -1.4, -0.79, -0.0, -0.0, -0.0, 0.45, 0.71, 0.0, -1.34, -1.2, -1.26, 0.0, 2.99, 4.18, 5.46, 1.33, -1.13, -3.26, -1.93, -0.64, 0.0, 0.7, 1.35, 2.04, 3.0, 2.66, 4.43, 3.16, 2.53, 1.2, 0.51, 1.23, 2.11, 2.11, 6.53, 6.53, 6.53, 6.94, 6.53, 6.29, 5.89, 5.67, 5.67, 5.26, 5.04, 5.29, 5.06, 5.06, 5.06, 5.72, 5.72, 6.35, 6.35, 6.67, 6.95, 7.51, 7.44, 6.87, 6.87, 6.87, 6.79, 6.7, 6.8, 6.1, 5.57, 4.77, 3.87, 3.09, 2.68, 1.79, 1.79, 1.79, 1.79, 1.79, 2.24, 2.24, 2.12, 1.7, 1.7, 1.7, 2.12, 2.17, 2.0, 1.9, 1.9, 1.4, -0.0, -0.0, -0.0, -0.0, -0.0, -0.0, -0.0, 1.26, 2.12, 1.34, -0.63, -1.24, -1.6, -0.87, -0.0, -0.0, -0.0, 0.8, 2.3, 2.15, 2.12, 2.17, 2.17, 2.17, 1.79, 1.33, 2.98, 2.29, 0.59, -1.23, -2.0, -1.44, 0.0, 0.0, 0.79, 1.36, 1.47, 1.11, 1.84, 3.6, 3.32, 2.6, 1.24, 1.27, 1.94, 1.94, 6.53, 6.53, 6.53, 6.94, 6.53, 6.29, 6.29, 5.67, 5.67, 5.26, 5.04, 5.29, 5.06, 5.06, 5.06, 5.72, 5.72, 6.35, 6.35, 6.35, 6.95, 7.23, 7.51, 7.44, 7.44, 7.15, 6.79, 6.7, 6.28, 6.0, 5.31, 4.6, 4.6, 3.87, 3.07, 2.24, 1.79, 1.79, 1.79, 1.79, 1.79, 1.79, 1.7, 1.7, 1.7, 1.7, 1.79, 2.24, 2.17, 1.86, 1.86, 1.24, -0.0, -0.0, -0.0, -0.0, -0.0, -0.0, -0.0, 0.45, 2.24, 3.47, 1.86, -0.0, -0.85, -0.0, -0.0, -0.0, -0.0, 0.0, 2.15, 3.79, 4.4, 4.47, 4.41, 5.09, 2.53, 1.26, 0.0, 0.74, 1.52, 0.0, -0.64, -2.06, -1.36, 0.0, 0.0, 0.63, 0.0, 0.0, 0.0, 3.07, 3.82, 3.98, 3.39, 2.53, 2.23, 2.23, 6.53, 6.53, 6.94, 6.94, 6.53, 6.29, 6.29, 5.64, 5.67, 5.26, 5.26, 5.04, 5.29, 5.06, 5.06, 5.72, 5.72, 6.0, 6.35, 6.35, 6.67, 7.55, 7.55, 7.51, 7.8, 7.09, 6.79, 6.41, 6.13, 5.6, 5.08, 4.65, 4.29, 4.0, 3.07, 2.17, 1.79, 1.79, 1.79, 1.79, 1.34, 1.34, 1.34, 1.2, 1.79, 1.79, 1.79, 1.79, 1.79, 1.79, 1.2, 0.8, -0.0, -0.0, -0.0, -0.0, -0.0, -0.0, -0.95, 0.45, 0.89, 3.04, 4.0, 1.9, 1.27, -0.0, -0.0, -0.0, 0.0, 0.0, 1.74, 3.48, 4.11, 4.24, 3.51, 2.5, 1.2, 0.45, 0.0, 0.0, 1.55, 1.41, 0.0, -1.94, -2.54, -0.64, 0.0, 0.0, 0.0, -1.13, -0.57, 0.57, 3.45, 4.0, 4.11, 3.6, 3.14, 3.14, 6.53, 6.53, 6.94, 6.53, 6.53, 6.29, 5.86, 5.64, 5.89, 5.26, 5.26, 5.04, 5.29, 5.06, 5.06, 5.32, 5.72, 5.72, 6.35, 6.35, 6.67, 6.97, 7.55, 7.55, 7.51, 7.44, 6.79, 6.15, 5.49, 4.94, 4.65, 4.65, 4.07, 3.43, 2.68, 2.17, 2.24, 1.79, 1.79, 1.34, 0.89, 0.89, 1.34, 1.34, 1.79, 1.79, 1.79, 1.79, 1.79, 1.34, 0.89, 0.8, -0.0, -0.0, -0.0, -0.0, -0.0, -0.0, -0.95, -0.89, 0.0, 1.79, 3.51, 3.2, 1.58, 1.27, 0.6, 0.45, 0.0, 0.0, 0.6, 3.2, 3.84, 2.15, 0.6, 0.0, 0.0, 0.89, 0.57, 0.7, 0.72, 1.67, 0.55, -0.63, -1.98, -1.4, -1.32, -1.27, -1.16, -1.13, -0.63, 0.0, 2.79, 3.78, 4.09, 3.72, 3.72, 3.72, 6.53, 6.53, 6.94, 6.53, 6.53, 6.29, 5.86, 5.64, 5.89, 5.67, 5.26, 5.04, 5.29, 5.29, 5.06, 5.06, 5.72, 5.72, 6.08, 6.35, 6.97, 6.97, 7.27, 7.55, 7.51, 6.92, 6.28, 5.65, 5.59, 5.29, 4.37, 4.11, 3.48, 2.84, 2.5, 1.86, 2.12, 1.7, 1.6, 1.2, 0.89, 1.34, 1.2, 0.89, 0.89, 1.79, 1.79, 1.7, 1.26, 1.2, 0.89, -0.0, -0.0, -0.0, -0.0, -0.0, -0.0, -0.0, -0.0, 0.45, 0.0, 1.34, 2.24, 2.12, 1.86, 0.8, 0.8, 0.45, 0.0, 0.0, 0.4, 3.2, 5.59, 4.46, 2.2, 0.0, -1.88, 0.0, 1.24, 1.4, 1.13, 1.07, 0.0, -0.57, -1.13, -1.8, -3.32, -2.88, -1.23, -0.7, -0.67, 0.0, 0.67, 2.73, 3.15, 3.78, 4.09, 4.09, 6.68, 6.68, 6.94, 6.53, 6.53, 6.29, 6.29, 5.64, 5.89, 5.67, 5.67, 5.26, 5.04, 5.29, 5.29, 5.29, 5.46, 5.72, 6.08, 6.35, 6.97, 6.97, 6.97, 6.67, 6.95, 6.64, 6.28, 5.69, 5.06, 5.01, 4.71, 3.49, 3.15, 2.23, 2.15, 1.86, 1.86, 1.49, 1.26, 0.95, 0.95, 1.2, 1.2, 1.2, 0.95, 0.89, 1.79, 1.6, 1.26, 0.89, -0.0, -0.0, -0.0, -0.0, -0.0, -0.0, -0.0, -0.0, -0.0, -0.0, 0.45, 1.34, 2.24, 1.79, 1.34, 0.95, 0.6, 0.45, 0.0, 0.0, 0.0, 2.21, 5.75, 7.45, 7.67, 4.74, 0.0, -1.33, 0.0, 1.33, 2.07, 1.05, 0.0, -1.11, -1.61, -1.9, -2.23, -2.0, -1.3, -0.69, -1.32, -0.78, 0.0, 1.94, 2.44, 3.15, 3.78, 3.78, 6.68, 6.68, 6.68, 6.53, 6.53, 6.29, 6.29, 5.64, 5.64, 5.89, 5.67, 5.26, 5.04, 5.29, 5.29, 5.7, 5.7, 5.98, 6.35, 6.35, 6.69, 6.69, 6.97, 6.35, 6.34, 6.04, 5.71, 5.38, 5.06, 5.06, 4.43, 3.49, 2.86, 2.23, 1.9, 1.58, 1.58, 1.58, 1.26, 0.6, 0.6, 0.95, 0.95, 1.2, 0.95, 0.0, 0.63, 1.26, 0.95, 0.45, -0.0, -0.0, -0.0, -0.0, -0.0, -0.0, -0.0, -0.0, 0.8, 0.63, 0.89, 1.34, 1.79, 1.34, 1.34, 0.89, 0.0, -0.45, 0.0, 0.57, 0.85, 0.0, 2.12, 6.71, 10.16, 10.15, 6.06, 0.76, -0.61, 0.0, 2.04, 2.12, 1.67, 1.13, 0.99, 0.95, 0.57, 0.0, 0.0, 0.0, -0.66, -0.7, 0.0, 0.61, 2.11, 2.66, 3.15, 3.15, 6.68, 6.68, 6.68, 6.27, 6.53, 6.53, 6.29, 5.86, 5.64, 5.89, 5.67, 5.67, 5.26, 5.04, 5.7, 5.7, 5.7, 5.7, 6.35, 6.35, 6.35, 6.35, 6.35, 6.35, 6.34, 5.72, 5.38, 4.47, 4.36, 4.45, 4.74, 3.49, 2.86, 2.23, 1.9, 1.9, 1.24, 1.24, 0.57, 0.8, 0.8, 0.8, 0.6, 0.95, 0.95, 0.8, 1.26, 0.6, 0.89, -0.0, -0.0, -0.0, -0.0, -0.0, -0.0, -0.0, -0.0, -0.0, 0.8, 0.8, 0.63, 0.89, 1.34, 1.34, 0.63, 0.63, 0.63, 0.0, 0.0, 0.71, 0.0, 0.45, 0.0, 3.04, 8.91, 10.25, 7.67, 2.86, 1.26, 2.15, 3.78, 5.09, 5.69, 6.04, 6.68, 6.16, 4.11, 2.15, 1.26, 1.26, 0.71, 0.0, -0.63, 0.0, 1.19, 1.94, 2.44, 2.44, 6.27, 6.27, 6.68, 6.27, 6.53, 6.53, 6.29, 5.86, 5.64, 5.89, 5.67, 5.67, 5.69, 5.26, 5.7, 5.7, 5.7, 5.7, 5.7, 6.08, 6.35, 6.35, 6.08, 6.35, 5.72, 5.36, 5.1, 4.73, 4.1, 4.01, 3.49, 3.22, 2.86, 2.23, 1.88, 1.61, 1.2, 1.0, 0.71, 0.57, 0.57, 0.6, 0.6, 0.6, 0.6, 0.6, 0.8, 0.95, 0.89, -0.0, -0.0, -0.0, -0.0, -0.0, -0.0, -0.0, -0.0, 0.6, 0.8, 0.8, 1.26, 0.8, 2.68, 0.89, 0.89, 0.0, 0.63, 1.34, 1.6, 0.8, 0.89, -0.0, 0.0, 2.21, 7.21, 8.36, 3.74, 1.34, 2.17, 4.87, 7.15, 8.47, 9.36, 10.28, 10.28, 9.82, 7.87, 4.4, 1.58, 1.49, 2.12, 1.24, 0.0, 0.0, 0.0, 1.41, 2.0, 2.0, 6.5, 6.5, 6.5, 6.27, 6.27, 6.53, 6.29, 5.86, 5.64, 5.64, 5.89, 5.67, 5.67, 5.69, 5.69, 5.7, 5.95, 5.95, 5.95, 6.08, 6.08, 6.35, 5.72, 5.72, 5.72, 5.1, 4.46, 4.73, 4.08, 3.47, 3.22, 2.86, 2.86, 2.23, 1.61, 1.16, 1.2, 1.2, 0.54, 0.71, 0.57, 0.8, 0.0, 0.0, 0.6, 0.8, 0.8, 0.95, 0.45, -0.0, -0.0, -0.0, -0.0, -0.0, -0.0, -0.0, 0.8, 0.8, 0.8, 0.8, 1.58, 1.58, 1.9, 1.9, 0.63, 0.45, 0.45, 0.89, 0.89, 0.89, 0.95, 0.6, 2.68, 4.01, 7.06, 8.19, 5.81, 4.8, 6.25, 8.48, 9.74, 10.28, 10.73, 10.71, 10.71, 9.82, 8.87, 5.72, 1.86, 0.95, 2.12, 2.6, 1.86, 0.0, 0.0, 1.11, 1.8, 1.8, 6.5, 6.5, 6.5, 6.27, 6.27, 6.53, 6.29, 5.86, 5.64, 5.64, 5.89, 5.67, 5.67, 5.69, 5.69, 5.69, 5.69, 5.95, 5.95, 5.95, 5.7, 5.98, 5.72, 5.72, 5.09, 4.71, 4.46, 4.08, 3.84, 3.47, 2.84, 2.86, 2.48, 2.23, 1.84, 1.16, 1.16, 0.65, 0.54, 0.71, 0.57, 0.0, 0.0, 0.0, 0.57, 0.57, 0.57, 0.0, 0.0, -0.0, -0.0, -0.0, -0.0, -0.0, -0.0, -0.0, 0.8, 0.8, 0.57, 0.71, 0.71, 1.2, 1.9, 1.9, 2.4, 2.68, 0.89, 0.89, 0.45, 0.45, 0.45, 1.34, 4.02, 6.94, 9.08, 9.26, 9.54, 9.84, 10.8, 10.95, 10.7, 10.26, 9.74, 9.74, 9.81, 8.49, 7.6, 3.97, 1.34, 0.63, 1.6, 2.63, 3.13, 2.4, 0.51, 0.0, 1.27, 1.27, 6.27, 6.27, 6.5, 6.27, 6.27, 6.53, 6.29, 5.86, 5.86, 5.64, 5.64, 5.89, 5.67, 5.67, 5.92, 5.69, 5.69, 5.69, 5.95, 5.95, 5.7, 5.72, 5.32, 5.34, 5.09, 4.71, 4.05, 4.08, 4.1, 3.47, 2.84, 2.6, 2.23, 1.8, 1.6, 1.13, 1.16, 0.53, 0.65, 0.54, 0.0, 0.0, 0.0, 0.0, 0.71, 0.54, 0.0, 0.0, -0.0, -0.0, -0.0, -0.0, -0.0, -0.0, -0.0, -0.0, 0.8, 0.8, 0.57, 0.71, 0.54, 1.24, 1.9, 0.63, 1.2, 3.13, 1.34, 0.89, 0.89, 0.0, 0.45, 0.45, 3.58, 7.15, 9.83, 8.94, 8.91, 9.83, 10.75, 10.65, 10.28, 8.46, 7.04, 6.67, 5.81, 5.36, 4.43, 3.39, 1.86, 0.89, 1.2, 2.17, 3.13, 3.58, 2.15, 0.61, 0.57, 0.57, 6.27, 6.27, 6.5, 6.27, 6.27, 6.53, 6.29, 6.29, 5.86, 5.64, 5.64, 5.89, 5.89, 5.67, 5.67, 5.92, 5.69, 5.69, 5.69, 5.95, 5.7, 5.06, 5.08, 4.83, 4.45, 4.05, 3.83, 3.84, 3.45, 3.47, 2.84, 2.22, 1.8, 1.58, 1.11, 1.11, 0.59, 0.61, 0.65, 0.54, 0.0, 0.0, 0.0, 0.0, 0.54, 0.65, 0.54, 0.0, -0.6, -0.0, -0.0, -0.0, -0.0, -0.0, -0.0, 0.8, 0.8, 0.8, 0.71, 0.71, 0.65, 0.65, 1.9, 0.63, 1.34, 3.13, 1.34, 0.89, 0.89, 0.45, 0.45, 0.0, 1.58, 5.81, 8.82, 8.46, 6.28, 7.71, 9.33, 9.46, 8.67, 7.12, 5.36, 4.47, 4.02, 4.43, 4.73, 3.82, 2.91, 1.79, 1.2, 2.12, 3.07, 4.02, 3.13, 1.9, 0.61, 0.59, 6.27, 6.27, 6.5, 6.27, 6.27, 6.27, 6.53, 6.29, 5.86, 5.86, 5.64, 5.64, 5.89, 5.67, 5.67, 5.92, 5.92, 5.69, 5.69, 5.95, 5.7, 5.06, 5.08, 4.44, 4.03, 4.05, 3.4, 3.42, 3.45, 3.47, 2.84, 2.2, 1.76, 1.23, 1.08, 0.57, 0.59, 0.61, 0.53, 0.0, 0.0, 0.0, 0.0, 0.0, 0.65, 1.16, 0.71, 0.45, -0.6, -0.0, -0.0, -0.0, -0.0, -0.0, -0.0, 0.57, 0.8, 0.57, 0.71, 0.54, 0.65, 0.65, 1.2, 0.63, 0.89, 2.68, 2.24, 0.89, 0.89, 0.45, 0.45, 0.0, 0.45, 3.58, 7.56, 7.6, 4.4, 6.39, 8.58, 9.14, 7.33, 5.77, 5.81, 5.36, 5.32, 5.2, 5.2, 4.73, 3.87, 3.09, 2.68, 2.63, 3.07, 3.95, 4.02, 3.51, 2.5, 0.61, 6.27, 6.27, 6.5, 6.27, 6.27, 6.27, 6.53, 6.29, 5.86, 5.86, 5.64, 5.64, 5.89, 5.89, 5.67, 5.67, 5.92, 5.92, 5.69, 5.69, 5.29, 5.06, 4.66, 4.44, 4.03, 4.05, 3.4, 3.42, 3.45, 2.8, 2.82, 2.4, 1.73, 1.19, 1.19, 0.55, 0.0, 0.61, 0.53, 0.0, 0.0, 0.0, 0.0, 0.54, 0.8, 0.65, 0.0, -0.0, -0.0, -0.6, -0.6, -0.6, -0.0, -0.0, -0.0, 0.8, 0.8, 0.57, 0.71, 0.54, 0.65, 0.65, 0.54, 1.2, 1.9, 2.4, 1.34, 0.89, 0.63, -0.0, -0.0, 0.0, 0.0, 1.58, 4.47, 5.34, 4.47, 4.46, 6.7, 6.96, 5.86, 4.47, 6.71, 6.67, 6.55, 6.55, 7.01, 6.11, 4.87, 4.87, 4.02, 3.97, 3.82, 5.16, 4.66, 4.85, 3.82, 2.5, 6.27, 6.27, 6.27, 6.27, 6.27, 6.27, 6.53, 6.29, 5.86, 5.86, 5.86, 5.64, 5.64, 5.89, 5.67, 5.67, 5.67, 5.92, 5.69, 5.69, 5.29, 4.63, 4.66, 4.0, 4.03, 3.6, 3.4, 3.42, 3.0, 2.8, 2.36, 2.36, 1.7, 1.16, 0.59, 0.55, 0.0, 0.51, 0.0, 0.0, 0.0, 0.0, 0.0, 0.54, 0.54, 0.0, 0.45, -0.0, -0.0, -0.95, -0.95, -0.6, -0.0, -0.0, -0.0, -0.0, 0.8, 0.57, 0.71, 0.54, -0.0, -0.0, -0.0, 1.4, 1.4, 1.4, 1.2, 1.9, -0.0, -0.0, -0.0, 0.0, 0.0, 0.0, 1.6, 2.12, 2.12, 2.24, 2.91, 3.32, 3.13, 3.53, 6.11, 8.24, 8.24, 7.48, 6.67, 5.78, 6.26, 5.81, 5.36, 4.87, 5.16, 7.21, 6.0, 4.93, 4.4, 4.4, 6.27, 6.27, 6.27, 6.27, 6.27, 6.27, 6.53, 6.29, 5.86, 5.86, 5.86, 5.64, 5.64, 5.89, 5.89, 5.67, 5.67, 5.92, 5.92, 5.04, 5.29, 4.63, 4.66, 4.0, 4.03, 3.37, 3.4, 3.42, 2.77, 3.0, 2.32, 2.32, 1.67, 1.14, 0.53, 0.54, 0.57, 0.59, 0.0, 0.0, 0.0, 0.0, 0.0, 0.0, 0.0, 0.0, 0.45, 0.45, -0.89, -0.89, -0.89, -0.63, -0.0, -0.0, -0.0, -0.0, 0.57, 0.57, 0.71, -0.0, -0.0, -0.0, -0.0, -0.0, 1.4, 1.4, 1.4, 1.4, -0.0, -0.0, -0.0, 0.0, 0.0, 0.0, 0.0, 0.0, 0.89, 1.7, 3.07, 3.32, 5.05, 6.64, 8.93, 10.6, 10.37, 9.26, 6.66, 5.81, 5.81, 6.22, 6.66, 7.01, 6.79, 6.94, 3.84, 3.83, 3.83, 3.83, 6.27, 6.27, 6.27, 6.27, 6.27, 6.27, 6.53, 6.53, 5.86, 5.86, 5.86, 5.86, 5.64, 5.64, 5.89, 5.67, 5.67, 5.67, 5.92, 5.04, 5.06, 4.42, 4.2, 4.0, 3.56, 3.37, 3.4, 2.92, 2.96, 2.77, 2.29, 2.14, 1.65, 1.65, 1.14, 0.54, 0.57, 0.59, 0.59, 0.0, 0.0, 0.0, 0.0, 0.0, 0.0, 0.0, 0.45, -0.45, -0.89, -0.89, -0.45, 0.45, -0.0, -0.0, -0.6, -0.0, -0.0, -0.0, -0.0, -0.0, -0.0, -0.0, -0.0, -0.0, -0.0, 1.4, 1.4, 1.6, -0.0, -0.0, 0.63, 0.45, 0.0, 0.85, 0.65, 0.57, 1.79, 3.51, 6.54, 7.69, 9.3, 10.45, 11.85, 11.57, 11.03, 9.62, 7.57, 5.81, 5.78, 7.01, 6.98, 6.85, 6.94, 3.79, 2.84, 2.84, 2.84, 2.84, 6.27, 6.27, 6.27, 6.27, 6.27, 6.27, 6.27, 6.53, 5.86, 5.86, 5.86, 5.86, 5.64, 5.64, 5.89, 5.67, 5.67, 5.67, 5.92, 5.04, 4.63, 4.42, 4.2, 4.0, 3.35, 3.37, 3.37, 2.92, 2.75, 2.96, 2.29, 2.29, 1.76, 1.76, 1.12, 1.16, 0.55, 0.57, 0.57, 0.0, 0.0, 0.0, 0.0, 0.0, 0.0, 0.0, 0.0, -0.89, -0.89, -0.89, 0.45, 0.45, -0.0, -0.0, -0.0, -0.0, -0.0, -0.0, -0.0, -0.0, -0.0, -0.0, -0.0, -0.0, -0.0, 1.4, 1.4, 0.6, 0.6, -0.0, -0.0, 0.89, 0.63, 1.9, 2.23, 1.79, 2.68, 5.31, 7.71, 8.67, 10.24, 12.07, 13.15, 12.5, 10.6, 10.05, 9.29, 8.05, 7.12, 6.11, 8.37, 4.66, 3.49, 2.15, 1.4, 2.51, 2.51, 2.51, 6.27, 6.27, 6.27, 6.27, 6.27, 6.27, 6.27, 6.53, 5.86, 5.86, 5.86, 5.86, 5.86, 5.64, 5.89, 5.89, 5.67, 5.67, 5.92, 5.26, 4.63, 3.97, 3.78, 3.52, 3.35, 3.56, 2.89, 2.73, 2.92, 2.75, 2.26, 2.12, 1.63, 1.76, 1.65, 1.05, 0.61, 0.55, 0.55, 0.0, 0.0, 0.0, 0.0, 0.0, 0.0, -0.6, -0.95, -0.63, -0.89, -0.45, 0.45, 0.45, -0.0, -0.0, -0.0, -0.57, -0.0, -0.0, -0.0, -0.0, -0.0, -0.0, -0.0, -0.0, 0.53, -0.0, 1.4, 0.6, -0.0, -0.0, -0.0, 0.89, 1.34, 1.79, 2.24, 2.54, 3.95, 5.36, 6.98, 6.7, 8.27, 11.54, 13.35, 12.5, 11.52, 10.52, 9.81, 9.83, 8.36, 8.17, 6.8, 3.45, 2.21, 0.65, 0.7, 2.0, 2.0, 2.0, 6.27, 6.27, 6.27, 6.27, 6.27, 6.27, 6.27, 6.27, 5.86, 5.86, 5.86, 5.86, 5.86, 5.64, 5.64, 5.89, 5.67, 5.67, 5.69, 5.26, 4.63, 3.97, 3.78, 3.52, 3.35, 3.35, 2.89, 2.89, 2.92, 2.92, 2.26, 2.26, 1.73, 1.63, 1.65, 1.14, 1.16, 0.54, 0.61, 0.0, 0.0, 0.0, 0.0, 0.0, -0.71, -0.8, -0.6, -0.63, -0.89, -0.89, 0.45, 0.45, -0.0, -0.0, -0.57, -0.57, -0.0, -0.0, -0.0, -0.0, -0.0, -0.0, -0.0, -0.0, -0.0, -0.0, -0.0, -0.0, -0.0, -0.0, -0.0, 0.63, 1.2, 1.34, 1.34, 3.13, 3.58, 4.92, 5.09, 3.79, 5.69, 10.23, 12.94, 12.79, 11.47, 10.05, 8.94, 8.84, 7.89, 3.32, 3.32, 3.07, 2.5, 1.2, 0.59, 2.2, 2.2, 2.2, 6.27, 6.27, 6.27, 6.27, 6.27, 6.27, 6.27, 6.27, 5.86, 5.86, 5.86, 5.86, 5.86, 5.64, 5.64, 5.89, 5.67, 5.67, 5.69, 5.26, 5.04, 3.97, 3.78, 3.52, 3.35, 3.35, 2.89, 2.89, 2.73, 2.92, 2.4, 2.26, 1.73, 1.73, 1.2, 1.14, 0.58, 0.59, 0.54, 0.0, 0.0, 0.0, 0.0, 0.0, 0.0, 0.0, 0.0, -0.63, -0.89, -0.89, 0.45, 0.45, -0.0, -0.0, -0.57, -0.57, -0.0, -0.0, -0.0, -0.0, -0.0, -0.0, -0.0, -0.0, -0.0, -0.0, -0.0, -0.0, -0.0, -0.0, -0.0, 0.63, 0.63, 0.89, 0.89, 1.34, 1.79, 2.68, 4.22, 4.11, 4.19, 7.03, 9.92, 9.84, 9.6, 8.38, 7.12, 5.64, 4.43, 3.53, 3.32, 3.07, 3.07, 1.88, 1.13, 2.0, 2.0, 2.0, 6.27, 6.27, 6.27, 6.27, 6.27, 6.27, 6.27, 6.27, 5.86, 5.86, 5.86, 5.86, 5.86, 5.64, 5.64, 5.89, 5.67, 5.67, 5.69, 5.26, 4.6, 3.97, 3.78, 3.52, 3.52, 3.35, 3.05, 2.89, 2.73, 2.73, 2.4, 2.4, 1.73, 1.73, 1.2, 1.12, 0.58, 0.58, 0.59, 0.54, 0.0, 0.0, 0.0, 0.0, 0.0, 0.0, 0.0, -0.63, -0.63, -0.89, 0.45, 0.45, 0.45, -0.0, -0.57, -0.57, -0.57, -0.0, -0.0, -0.0, -0.0, -0.0, -0.0, -0.0, -0.0, -0.0, -0.0, -0.0, -0.0, -0.0, -0.0, -0.0, 0.45, 0.89, 0.89, 0.89, 1.34, 2.54, 3.6, 3.58, 4.22, 4.19, 5.37, 6.39, 7.06, 6.67, 3.82, 2.68, 3.32, 4.43, 4.43, 3.45, 3.14, 2.53, 2.07, 2.0, 2.0, 2.0, 6.27, 6.27, 6.27, 6.27, 6.27, 6.27, 6.27, 6.27, 5.62, 5.86, 5.86, 5.86, 5.86, 5.64, 5.64, 5.89, 5.67, 5.67, 5.26, 5.26, 4.6, 3.97, 3.78, 3.52, 3.52, 3.35, 3.35, 2.89, 2.89, 2.73, 2.73, 2.4, 2.26, 1.73, 1.1, 1.12, 1.12, 0.58, 0.53, 0.54, 0.0, 0.0, 0.0, 0.0, 0.0, 0.0, 0.0, 0.0, 0.0, 0.45, 0.45, 0.45, 0.45, -0.0, -0.8, -0.57, -0.8, -0.0, -0.0, -0.0, -0.0, -0.0, -0.0, -0.0, -0.0, -0.0, -0.0, -0.0, -0.0, -0.0, -0.0, 0.6, 0.45, 0.63, 0.89, 0.89, 1.79, 2.0, 2.4, 2.6, 2.84, 3.16, 1.88, 3.07, 5.77, 6.22, 3.97, 2.5, 2.21, 3.07, 4.73, 4.93, 3.48, 3.07, 2.51, 1.61, 1.61, 1.61, 6.27, 6.27, 6.27, 6.27, 6.27, 6.27, 6.27, 5.83, 5.83, 5.86, 5.86, 5.86, 5.86, 5.64, 5.64, 5.89, 5.67, 5.67, 5.26, 5.04, 4.6, 4.63, 3.97, 3.52, 3.52, 3.35, 3.35, 3.37, 2.89, 2.73, 2.73, 2.4, 2.4, 1.73, 1.1, 1.1, 1.12, 1.12, 0.58, 0.59, 0.54, 0.0, 0.0, 0.0, 0.0, 0.0, 0.0, 0.0, 0.0, 0.45, 0.45, 0.45, 0.45, -0.0, -0.0, -0.8, -1.26, -0.8, -0.0, -0.0, -0.0, -0.0, -0.0, -0.0, -0.53, -0.65, -0.8, -0.8, -0.0, -0.0, -0.0, -0.0, -0.0, -0.0, 0.45, 0.45, 1.79, 1.79, 1.79, 2.24, 2.4, 2.6, 1.26, 3.13, 7.92, 6.58, 3.97, 2.91, 1.88, 1.84, 3.49, 5.05, 3.49, 1.9, 0.6, 0.0, 0.0, 0.0, 5.83, 5.83, 5.83, 5.83, 5.83, 5.83, 5.83, 5.83, 5.83, 5.86, 5.86, 5.86, 5.86, 5.64, 5.64, 5.89, 5.67, 5.67, 5.26, 5.04, 4.6, 4.63, 3.97, 3.52, 3.52, 3.35, 3.35, 3.56, 3.37, 2.89, 2.73, 2.92, 2.4, 1.73, 1.18, 1.1, 1.2, 1.12, 1.14, 0.58, 0.54, 0.55, 0.0, 0.0, 0.0, 0.0, 0.0, 0.0, 0.0, 0.45, 0.0, 0.45, -0.0, -0.0, -0.0, -0.0, -1.26, -1.26, -0.6, -0.0, -0.0, -0.0, -0.0, -0.0, -0.54, -0.54, -1.26, -1.26, -0.6, -0.6, -0.0, -0.0, 0.6, 0.6, -0.0, -0.0, 0.45, 1.79, 1.34, 1.34, 1.34, 2.0, 1.7, 7.56, 9.28, 8.38, 5.64, 2.91, 1.88, 1.84, 2.79, 4.12, 2.5, 0.0, -0.95, -0.0, -0.0, -0.0, 5.83, 5.83, 5.83, 5.83, 5.83, 5.83, 5.83, 5.83, 5.83, 5.86, 5.86, 5.86, 5.86, 5.64, 5.64, 5.89, 5.67, 5.67, 5.26, 5.04, 4.6, 4.63, 3.97, 4.0, 3.52, 3.52, 3.35, 3.56, 3.37, 3.37, 2.92, 2.92, 2.92, 2.26, 1.73, 1.73, 1.1, 1.2, 1.12, 1.14, 1.16, 0.61, 0.57, 0.0, 0.0, 0.0, 0.0, 0.0, 0.0, 0.45, 0.45, 0.45, -0.0, -0.0, 0.6, -0.0, -0.57, -1.26, -1.26, -0.8, -0.0, -0.0, -0.0, -0.0, -0.57, -0.57, -0.99, -1.49, -1.2, -0.63, -0.0, 0.0, 0.45, 1.2, 0.6, -0.0, 0.45, 0.0, 0.0, 0.89, 0.45, 0.45, 2.68, 6.71, 8.94, 8.05, 6.67, 3.82, 2.21, 1.16, 2.07, 2.53, 0.0, -1.7, -0.63, 0.63, 0.63, 0.63, 5.83, 5.83, 5.83, 5.83, 5.83, 5.83, 5.83, 5.83, 5.83, 5.86, 5.86, 5.86, 5.86, 5.64, 5.64, 5.89, 5.67, 5.67, 5.26, 5.04, 5.29, 4.63, 4.42, 4.0, 4.0, 3.52, 3.35, 3.56, 3.37, 3.37, 3.4, 3.4, 2.92, 2.26, 2.26, 1.73, 1.63, 1.76, 1.65, 1.8, 1.14, 1.16, 1.08, 0.57, 0.61, 0.0, 0.0, 0.0, 0.0, 0.45, 0.45, 0.45, -0.0, -0.0, 0.6, 0.8, -0.0, -0.57, -1.24, -0.8, -0.0, -0.0, -0.0, -0.0, -0.0, -0.57, -0.6, -1.2, -0.89, -0.89, -0.45, 0.0, 0.45, 0.89, 0.63, 0.63, 0.45, 0.0, -0.95, -1.26, 0.0, 0.0, 0.63, 2.4, 3.51, 4.02, 4.47, 3.32, 1.88, 1.33, 2.07, 1.24, -0.89, -1.34, 0.0, 0.89, 0.89, 0.89, 5.83, 5.83, 5.83, 5.83, 5.83, 5.83, 5.83, 5.83, 5.62, 5.86, 5.86, 5.86, 5.64, 5.64, 5.89, 5.89, 5.67, 5.92, 5.26, 5.04, 5.29, 4.63, 4.63, 4.2, 4.0, 4.0, 3.8, 4.03, 3.37, 3.37, 3.6, 3.4, 3.4, 2.75, 2.26, 2.26, 2.26, 1.63, 1.76, 1.65, 1.67, 1.7, 1.73, 1.11, 1.13, 0.65, 0.57, 0.6, 0.95, 0.89, 0.89, 0.89, 0.63, 0.95, 0.6, 1.26, 0.57, -0.0, -0.57, -0.8, -0.0, -0.0, -0.0, -0.0, -0.0, -0.0, -0.0, -0.0, -0.95, -0.89, -0.45, 0.0, 0.0, 0.45, 0.45, 0.89, 0.89, 0.0, 0.0, -0.63, -0.63, -1.34, -1.7, -0.6, 0.63, 1.79, 2.68, 2.68, 1.24, 0.0, 0.0, -0.54, -0.6, 0.0, 0.0, 0.6, 0.6, 0.6, 5.83, 5.83, 5.83, 5.83, 5.83, 5.83, 5.83, 5.83, 5.86, 5.86, 5.86, 5.86, 5.64, 5.64, 5.89, 5.67, 5.67, 5.92, 5.26, 5.04, 5.29, 4.63, 4.63, 4.2, 4.0, 4.0, 3.8, 4.03, 4.03, 4.05, 4.05, 3.4, 3.4, 3.4, 2.75, 2.75, 2.26, 2.26, 2.29, 2.29, 2.32, 2.36, 2.4, 1.76, 1.6, 1.16, 1.24, 1.26, 1.6, 1.34, 1.34, 0.89, 0.63, 0.63, 0.6, 0.8, 1.26, -0.0, -0.0, -0.8, -0.0, -0.0, -0.0, -0.0, -0.0, -0.0, -0.0, -0.0, -0.0, -0.45, -0.45, 0.45, 0.0, 0.0, 0.0, 0.45, 0.89, 1.34, 0.63, 0.0, 0.45, -1.34, -1.79, -1.34, 0.45, 1.34, 1.79, 0.63, 0.0, -1.16, -1.33, -1.16, 0.0, 0.63, 0.99, 1.2, 1.2, 1.2, 5.83, 5.83, 5.83, 5.83, 5.83, 5.83, 5.83, 5.83, 5.86, 5.86, 5.86, 5.86, 5.64, 5.64, 5.89, 5.67, 5.67, 5.69, 5.26, 5.26, 5.29, 5.06, 4.63, 4.66, 4.0, 4.0, 4.03, 4.03, 4.03, 4.05, 4.05, 3.83, 3.83, 3.83, 3.4, 3.2, 2.75, 2.75, 2.96, 2.77, 3.0, 2.8, 2.82, 2.2, 2.48, 1.84, 1.9, 1.86, 2.12, 1.7, 1.34, 1.34, 1.34, 0.63, 0.95, 1.2, 1.26, 0.6, -0.0, -0.6, -0.0, -0.0, -0.0, -0.0, -0.0, -0.0, -0.0, -0.0, -0.0, 0.0, 0.0, 0.45, 0.0, 0.45, 0.0, 0.0, 0.63, 1.2, 1.79, 0.45, 0.0, 0.45, -0.8, -0.89, 0.0, 1.79, 1.79, 0.89, 0.0, -0.71, -0.53, -0.61, 0.57, 1.58, 1.16, 1.33, 1.33, 1.33, 5.83, 5.83, 5.83, 5.83, 5.83, 5.83, 5.83, 5.62, 5.86, 5.86, 5.86, 5.64, 5.64, 5.89, 5.89, 5.67, 5.67, 5.69, 5.69, 5.26, 5.29, 5.06, 5.06, 4.66, 4.44, 4.44, 4.69, 4.45, 4.45, 4.46, 4.46, 4.05, 4.08, 4.08, 4.08, 4.08, 3.64, 3.42, 3.42, 3.42, 3.45, 3.22, 3.22, 3.22, 3.15, 2.84, 2.21, 2.8, 2.4, 2.17, 2.24, 1.79, 1.34, 1.34, 1.34, 1.2, 1.2, 1.2, -0.0, -0.0, -0.0, -0.0, -0.0, -0.0, -0.0, -0.0, -0.0, -0.0, -0.0, 0.89, 0.45, 0.45, 0.0, 0.0, 0.0, 0.0, 0.63, 0.8, 2.68, 1.79, 0.45, 0.0, 0.0, 0.0, 0.0, 1.7, 2.63, 2.68, 2.24, 1.86, 1.88, 2.5, 2.24, 2.15, 2.4, 2.88, 2.88, 2.88, 5.83, 5.83, 5.83, 5.83, 5.83, 5.83, 5.83, 5.86, 5.86, 5.86, 5.86, 5.64, 5.64, 5.89, 5.89, 5.67, 5.67, 5.69, 5.69, 5.04, 5.29, 5.06, 5.06, 5.08, 4.44, 4.69, 4.69, 4.45, 4.71, 4.71, 4.46, 4.46, 4.73, 4.47, 4.47, 4.47, 4.08, 4.08, 3.84, 3.84, 4.1, 3.85, 3.84, 3.83, 4.07, 3.43, 3.35, 3.2, 3.32, 3.07, 2.6, 2.24, 1.79, 1.34, 1.34, 1.34, 1.34, 1.2, 0.95, -0.0, -0.0, -0.0, -0.0, -0.0, -0.0, -0.0, -0.0, -0.0, -0.0, 0.63, 0.89, 0.45, 0.0, 0.0, 0.0, 0.0, 0.0, 2.24, 2.68, 2.68, 1.34, 0.0, 0.0, 0.0, 0.95, 2.17, 3.13, 4.02, 4.02, 4.47, 4.87, 4.47, 3.45, 3.43, 3.64, 4.36, 4.36, 4.36, 5.83, 5.83, 5.83, 5.83, 5.83, 5.83, 5.62, 5.86, 5.86, 5.86, 5.86, 5.64, 5.89, 5.89, 5.89, 5.67, 5.67, 5.69, 5.69, 5.7, 5.29, 5.06, 5.32, 5.08, 4.44, 4.69, 4.69, 4.45, 4.71, 4.71, 5.1, 5.1, 5.1, 5.1, 4.47, 4.47, 4.75, 4.75, 4.75, 4.47, 4.47, 4.75, 4.45, 4.43, 4.65, 4.37, 3.88, 3.7, 3.82, 3.53, 3.07, 2.6, 2.24, 1.79, 1.79, 1.34, 1.34, 1.34, 1.34, 0.63, -0.0, -0.0, -0.0, -0.0, -0.0, -0.0, -0.0, -0.0, -0.0, 0.63, 0.89, 0.89, 1.2, 1.79, 0.0, 0.0, 0.0, 2.24, 2.68, 2.24, 1.26, 0.63, 0.8, 1.26, 1.26, 2.6, 3.58, 4.02, 5.77, 6.21, 6.55, 5.86, 4.73, 4.11, 4.43, 4.01, 4.01, 4.01, 5.83, 5.83, 5.83, 5.83, 5.83, 5.83, 5.62, 5.86, 5.86, 5.86, 5.86, 5.64, 5.89, 5.89, 5.89, 5.67, 5.67, 5.69, 5.69, 5.7, 5.29, 5.06, 5.32, 5.08, 4.44, 4.69, 4.69, 4.45, 4.71, 4.71, 5.1, 5.1, 5.1, 5.1, 4.47, 4.47, 4.75, 4.75, 4.75, 4.47, 4.47, 4.75, 4.45, 4.43, 4.65, 4.37, 3.88, 3.7, 3.82, 3.53, 3.07, 2.6, 2.24, 1.79, 1.79, 1.34, 1.34, 1.34, 1.34, 0.63, -0.0, -0.0, -0.0, -0.0, -0.0, -0.0, -0.0, -0.0, -0.0, 0.63, 0.89, 0.89, 1.2, 1.79, 0.0, 0.0, 1.79, 2.24, 2.68, 2.24, 1.26, 0.63, 1.26, 2.23, 2.4, 3.53, 4.47, 6.22, 7.28, 7.98, 8.55, 8.24, 7.07, 5.72, 4.81, 4.46, 4.46, 4.46]}, {"header": {"dx": 0.06612293990616946, "dy": 0.0552356325346848, "nx": 98, "ny": 59, "la1": 35.046912555036876, "la2": 31.78801023549047, "lo1": -121.43107172385933, "lo2": -114.95102361305473, "refTime": "2026041805", "parameterCategory": 1, "parameterNumber": 3}, "data": [-9.94, -9.66, -9.94, -9.37, -9.02, -8.73, -7.81, -7.17, -6.28, -5.65, -4.43, -3.2, -1.24, -0.8, -0.63, -0.89, -0.89, -0.89, -0.89, -0.45, 0.0, 0.0, 0.65, 0.65, 0.87, 0.79, 0.73, 1.55, 2.4, 3.11, 4.16, 4.29, 4.56, 4.56, 4.56, 4.56, 3.79, 3.0, 0.73, 0.0, -0.61, -1.4, -2.15, -2.95, -3.63, -3.9, -4.03, -4.46, -4.37, -3.91, -1.55, 1.2, 2.84, 3.07, 3.79, 3.79, 4.01, 3.9, 3.2, 3.09, 2.4, 2.26, 1.52, 0.79, 1.4, 2.07, 1.84, 1.58, 1.34, 1.79, 1.34, 1.34, 0.95, 0.57, 0.57, 0.95, 0.89, 0.89, 0.63, 0.63, 0.45, 0.45, 0.0, -0.0, -0.95, -1.49, -2.17, -2.68, -3.13, -3.39, -4.4, -5.05, -5.6, -5.05, -4.93, -4.0, -3.07, -2.21, -9.94, -9.94, -9.59, -9.37, -9.3, -8.73, -7.81, -7.51, -6.52, -5.65, -5.01, -3.48, -1.49, -1.24, -1.4, -1.58, -0.89, -0.89, -1.34, -1.34, -0.89, -0.95, 0.0, 0.0, 0.7, 0.0, 0.76, 0.76, 1.6, 2.41, 3.43, 4.01, 4.43, 4.11, 3.43, 2.88, 2.8, 2.12, 0.76, 0.0, -0.61, -1.6, -2.68, -5.09, -5.37, -6.01, -5.94, -5.49, -4.46, -1.41, 0.65, 2.84, 3.35, 3.43, 3.48, 3.79, 4.01, 3.79, 3.69, 3.27, 2.99, 2.31, 1.52, 1.49, 1.88, 2.79, 3.07, 2.5, 1.79, 1.79, 1.79, 1.79, 1.49, 0.71, 0.71, 0.57, 0.63, 0.89, 0.63, 0.63, 0.45, 0.45, 0.0, -0.0, -0.95, -1.49, -2.17, -2.68, -3.13, -3.39, -4.4, -5.05, -5.6, -5.05, -4.93, -4.0, -3.07, -2.21, -9.94, -9.59, -9.37, -9.3, -8.94, -8.38, -8.08, -7.51, -6.87, -5.98, -5.01, -4.37, -1.88, -1.2, -0.71, -0.8, -0.95, -1.34, -1.79, -1.79, -1.79, -1.79, -1.6, 0.0, 0.0, 0.7, 1.4, 0.65, 0.71, 1.24, 1.49, 1.88, 2.15, 1.88, 1.16, 0.7, 0.7, 0.74, 0.0, -0.66, -1.8, -3.15, -5.06, -6.06, -6.7, -6.39, -5.37, -3.72, -0.7, 0.76, 2.79, 2.98, 2.73, 3.07, 3.48, 3.48, 3.72, 3.55, 3.09, 2.99, 2.44, 2.31, 1.52, 2.41, 2.86, 3.84, 4.81, 4.12, 3.07, 2.6, 2.24, 2.24, 2.12, 0.99, -0.0, -0.0, -0.0, 0.45, 0.0, 0.0, 0.0, 0.0, 0.0, 0.0, -0.63, -1.2, -1.2, -1.79, -2.63, -3.45, -5.09, -6.0, -6.0, -5.86, -4.73, -3.97, -2.91, -2.15, -9.59, -9.59, -9.3, -8.94, -8.73, -8.65, -8.08, -7.51, -6.87, -6.23, -5.59, -5.29, -3.16, -1.9, -1.49, -0.71, -0.57, -1.6, -2.24, -2.17, -2.12, -1.6, -1.34, -1.34, 0.0, 0.71, 1.2, 0.76, 0.65, 0.0, 0.0, 0.0, 0.0, -0.95, -0.71, -0.76, -0.79, -1.03, -1.45, -2.2, -3.9, -4.65, -4.43, -3.72, -2.98, -2.98, -1.49, 0.0, 1.49, 2.4, 2.66, 2.4, 2.3, 3.16, 3.49, 3.79, 3.22, 3.0, 3.09, 2.31, 1.52, 1.49, 2.11, 2.86, 3.83, 4.46, 5.46, 5.72, 5.38, 4.12, 3.32, 2.68, 2.24, 1.49, -0.0, -1.0, -1.26, -0.89, 0.0, -0.45, -0.8, -0.89, -0.63, -0.45, -0.63, -0.63, -0.89, -1.7, -3.07, -4.73, -5.72, -5.43, -5.34, -4.24, -3.58, -3.13, -2.6, -1.9, -9.86, -9.3, -9.3, -8.73, -8.65, -8.65, -8.08, -7.73, -7.44, -6.57, -5.93, -5.49, -3.16, -1.9, -1.9, -1.9, -1.9, -1.86, -2.24, -2.4, -2.23, -1.58, -0.8, -0.0, -0.0, 0.0, 0.0, 0.0, 0.0, 0.0, -1.26, -1.7, -2.24, -3.58, -4.82, -4.98, -4.11, -4.47, -4.83, -5.0, -4.43, -2.15, -0.61, 0.0, 0.0, 0.0, 1.35, 2.11, 2.29, 2.29, 2.2, 2.3, 2.15, 3.22, 3.84, 3.72, 3.11, 3.0, 3.09, 2.23, 0.81, 0.74, 2.15, 3.74, 4.09, 4.74, 5.43, 5.09, 5.43, 5.09, 3.16, 2.8, 2.68, 2.24, 0.95, -0.57, -1.58, -1.7, -1.2, -0.89, -1.7, -1.79, -1.79, -0.89, -1.2, -2.12, -2.24, -3.07, -4.46, -5.72, -5.09, -3.84, -3.6, -3.13, -2.4, -2.24, -2.4, -1.9, -9.86, -9.3, -8.94, -8.65, -8.65, -8.29, -8.08, -8.0, -7.44, -6.79, -6.15, -5.49, -3.22, -1.9, -1.9, -1.9, -2.15, -2.23, -2.63, -3.51, -4.4, -3.45, -2.21, -0.8, -0.89, -1.34, -2.24, -2.23, -2.6, -1.49, -1.26, -1.79, -2.24, -4.47, -6.67, -7.01, -6.28, -6.08, -6.06, -3.49, -1.26, 0.0, 0.0, 0.0, 0.0, 1.41, 3.11, 3.11, 3.11, 2.98, 2.3, 2.41, 2.84, 3.22, 3.16, 3.11, 2.35, 2.35, 1.49, 1.54, 0.81, 1.55, 2.8, 3.45, 3.84, 4.43, 5.37, 5.37, 3.72, 3.72, 1.8, 1.61, 1.7, 1.34, 1.34, 0.0, -0.63, -1.7, -0.89, -0.63, -1.7, -2.63, -2.68, -2.24, -2.6, -3.58, -4.43, -5.86, -6.64, -5.69, -4.09, -4.09, -3.32, -1.58, -1.61, -2.68, -2.68, -2.21, -9.5, -9.3, -9.21, -8.65, -8.65, -8.29, -8.08, -8.37, -8.0, -7.35, -6.51, -5.49, -3.22, -1.24, -3.48, -2.23, -2.8, -3.2, -3.74, -4.47, -4.43, -5.86, -5.86, -4.66, -3.58, -3.13, -4.02, -5.36, -5.26, -3.58, -1.79, -1.34, -1.34, -2.23, -4.93, -6.11, -6.98, -6.4, -4.65, -1.26, 0.0, -0.89, -0.71, -0.76, 0.0, 1.41, 3.9, 4.56, 4.29, 3.68, 3.49, 2.84, 3.07, 3.35, 2.4, 1.6, 1.52, 0.78, 0.0, 0.0, 0.79, 2.41, 2.8, 2.8, 3.22, 3.79, 4.65, 3.11, 2.2, 0.73, 0.0, 0.0, 0.0, 0.0, 0.0, 0.0, 0.0, 0.0, -0.45, -1.6, -1.79, -3.58, -4.02, -4.02, -4.02, -5.36, -7.45, -7.71, -6.94, -5.86, -5.94, -6.13, -3.13, -1.16, -1.9, -3.07, -3.45, -3.14, -9.3, -9.21, -9.01, -8.65, -8.29, -8.29, -8.55, -8.55, -8.0, -7.9, -7.07, -6.28, -3.83, -2.21, -3.49, -1.9, -2.5, -3.22, -3.45, -3.45, -2.4, -2.63, -3.58, -5.36, -6.26, -6.26, -6.71, -6.71, -5.73, -4.82, -2.97, -2.54, -3.13, -4.98, -6.0, -6.79, -7.01, -6.98, -4.0, -1.58, -0.45, -0.89, -0.89, -0.95, 0.0, 1.58, 2.84, 3.9, 4.46, 4.46, 2.79, 3.07, 4.01, 3.33, 2.47, 0.82, 0.0, 0.0, 0.0, 0.0, 1.49, 1.58, 2.17, 3.2, 3.22, 2.41, 2.29, 0.72, 0.0, -0.73, -0.66, -1.16, -1.58, -2.24, -2.24, -1.79, 0.0, 0.0, -0.89, -1.86, -2.21, -4.02, -4.47, -5.36, -6.26, -7.12, -7.48, -7.45, -7.01, -6.98, -7.76, -5.78, -2.53, -1.33, -2.4, -3.39, -3.72, -3.49, -9.58, -9.21, -8.65, -8.65, -8.29, -8.55, -8.55, -8.55, -8.55, -8.27, -7.76, -7.31, -6.36, -5.75, -4.4, -3.2, -3.2, -3.45, -2.5, -2.23, -1.24, -0.85, -1.49, -2.5, -3.97, -4.47, -4.02, -3.58, -4.57, -5.94, -7.08, -8.94, -10.23, -9.77, -8.36, -6.55, -6.17, -6.61, -5.36, -2.68, -1.6, -0.0, -0.0, -0.0, -0.0, 0.45, 0.6, 0.99, 3.0, 4.03, 5.72, 4.65, 4.29, 3.0, 2.47, 0.76, 0.0, 0.0, 0.0, 0.0, 1.26, 1.79, 2.6, 3.2, 2.41, 1.41, 0.0, 0.0, -1.47, -2.4, -2.15, -2.15, -2.15, -2.24, -2.17, -2.4, -1.58, -1.26, -1.79, -1.86, -1.88, -3.2, -3.98, -4.92, -6.22, -6.58, -6.58, -6.07, -5.67, -5.32, -4.47, -3.2, -2.48, -2.51, -3.53, -4.24, -4.09, -3.78, -9.21, -9.21, -8.65, -8.65, -8.65, -8.29, -8.55, -8.55, -8.55, -8.82, -8.68, -8.28, -8.0, -8.96, -7.89, -7.42, -7.21, -7.85, -7.08, -6.61, -5.73, -5.4, -4.11, -3.79, -4.57, -4.38, -3.47, -3.13, -4.82, -7.52, -8.94, -9.33, -8.49, -7.6, -8.05, -5.81, -3.04, -2.68, -3.04, -2.97, -1.58, -0.0, -0.0, -0.0, 0.0, 0.0, -0.63, 0.0, 0.65, 3.22, 4.95, 5.59, 5.3, 3.9, 2.11, 0.73, 0.0, -0.79, 0.0, 1.2, 3.04, 4.38, 6.36, 3.83, 2.3, 0.61, 0.0, 0.0, -0.61, -1.9, -2.15, -2.5, -2.0, -1.79, -1.79, -2.0, -2.5, -3.07, -3.07, -2.68, -2.15, -1.61, -2.53, -3.07, -3.39, -3.82, -3.6, -3.2, -2.91, -2.24, -1.58, -1.6, -3.48, -4.09, -4.47, -4.73, -5.43, -4.73, -9.21, -9.21, -8.84, -8.65, -8.65, -8.65, -8.65, -8.93, -8.93, -8.82, -8.82, -8.82, -8.43, -8.51, -8.14, -8.8, -9.54, -10.58, -10.6, -10.6, -11.06, -10.6, -9.75, -8.3, -8.22, -5.51, -4.38, -4.02, -4.47, -5.81, -5.29, -3.07, -1.34, -1.7, -3.32, -3.47, -2.54, -0.95, -1.86, -1.7, -0.63, -0.0, 0.0, 0.0, 0.0, 0.0, 0.0, 0.0, 0.6, 2.21, 4.46, 5.43, 4.74, 2.73, 0.7, 0.0, 0.0, 0.0, 0.95, 4.92, 6.66, 6.98, 6.7, 5.34, 4.8, 2.86, 2.21, 2.21, 1.49, 0.0, -0.89, -1.2, -0.63, -0.63, -0.63, -1.34, -2.4, -3.45, -3.82, -3.53, -3.58, -2.68, -1.84, -1.27, -1.13, -1.13, -1.13, -1.13, -0.65, 0.0, -0.0, -1.61, -3.72, -4.93, -5.36, -6.55, -6.13, -5.05, -9.21, -9.21, -9.21, -8.84, -8.84, -8.84, -8.84, -9.1, -9.1, -9.1, -8.96, -8.96, -8.43, -7.9, -6.7, -7.2, -7.09, -9.11, -10.47, -11.04, -10.04, -9.57, -9.14, -9.11, -6.36, -5.81, -4.98, -3.54, -2.68, -2.12, -1.26, 0.0, 0.95, 0.0, -1.2, -1.6, -0.8, -0.0, -0.0, 0.0, 0.63, 0.63, 0.63, 0.0, 0.0, 0.0, 0.0, 0.63, 0.95, 1.26, 1.86, 2.21, 1.9, 0.54, 0.0, 0.0, 0.0, 0.0, 1.7, 5.81, 8.01, 8.19, 7.71, 6.65, 6.71, 5.81, 3.97, 3.32, 2.8, 2.6, 1.7, 1.49, 1.26, 0.6, 0.0, -0.63, -1.34, -2.63, -3.82, -4.87, -3.98, -3.58, -2.68, -1.27, -0.57, 0.0, 0.0, 0.0, 0.0, 0.0, 0.0, -1.7, -2.91, -4.3, -4.92, -6.55, -6.11, -5.64, -9.21, -9.21, -9.21, -9.21, -9.21, -9.21, -9.21, -9.1, -9.1, -9.1, -9.1, -8.96, -8.82, -8.0, -7.09, -5.88, -4.94, -5.89, -8.0, -8.96, -8.48, -8.0, -7.51, -4.0, -2.23, -1.6, -0.99, -1.16, -0.54, 0.0, 0.0, 0.0, 0.57, 0.0, 0.0, 0.95, 0.89, 0.89, 0.89, 0.89, 0.63, 0.95, 0.6, 0.0, -0.45, -0.89, -0.89, -0.45, 0.0, 0.0, 0.0, 0.0, 0.0, 0.0, 0.0, -0.95, -0.95, -0.6, 1.2, 4.47, 6.71, 7.45, 7.45, 8.05, 8.36, 5.64, 3.13, 2.6, 2.23, 2.86, 3.45, 2.84, 1.88, 1.24, 0.0, -0.6, -0.6, -1.7, -2.68, -3.13, -4.73, -4.43, -4.43, -3.82, -1.33, -0.66, -0.67, -0.67, -0.63, 0.0, -0.63, -1.16, -1.86, -3.58, -4.43, -5.32, -5.32, -5.36, -9.21, -9.21, -9.21, -9.21, -9.21, -9.21, -9.21, -9.1, -9.1, -9.1, -9.1, -8.72, -8.82, -8.0, -8.0, -6.52, -5.06, -4.71, -5.49, -6.56, -6.95, -6.41, -5.86, -3.79, -2.22, -1.19, -0.54, -0.53, 0.0, 0.0, 0.0, 0.0, 0.0, 0.0, 0.6, 1.2, 1.7, 1.79, 0.89, 0.89, 0.63, 0.0, 0.0, 0.0, -2.68, -3.13, -1.79, -1.34, -1.34, -1.2, -1.6, -2.12, -1.79, 0.0, 0.0, -0.63, -1.34, -1.79, 0.0, 2.68, 5.09, 6.26, 7.6, 7.97, 6.51, 4.4, 1.86, 0.89, 1.4, 2.21, 3.16, 2.79, 1.33, 0.0, -0.57, -1.26, -1.26, -1.26, -1.49, -2.12, -2.68, -4.47, -5.81, -6.67, -3.45, -2.51, -2.11, -1.35, -0.63, -0.63, -0.67, -0.57, -1.33, -2.21, -3.6, -3.82, -4.02, -4.92, -9.76, -9.76, -9.76, -9.76, -9.76, -9.58, -9.21, -9.48, -9.1, -9.1, -9.1, -8.72, -8.55, -8.0, -8.0, -7.44, -6.28, -5.06, -4.74, -5.35, -5.65, -5.06, -5.06, -4.12, -3.22, -2.32, -1.76, -1.63, -1.1, -0.53, -0.61, 0.0, 0.0, 1.9, 2.8, 3.58, 3.82, 2.12, 2.8, 0.63, 0.0, 0.0, -1.2, -1.58, -1.58, -1.58, -2.24, 0.0, 0.0, -0.63, -2.12, -2.6, -1.58, 0.45, 0.89, 0.0, -1.2, -2.68, -0.89, 2.24, 3.74, 2.97, 2.54, 2.12, 2.0, 1.58, -0.0, -0.0, 0.0, 1.6, 1.9, 0.7, 0.0, -1.16, -1.9, -1.86, -1.86, -1.86, -1.26, -0.99, -0.57, -1.24, -2.91, -4.41, -5.81, -5.16, -4.09, -2.48, -1.41, -0.73, -0.63, -1.35, -2.2, -2.07, -2.15, -3.13, -4.43, -4.43, -9.76, -9.76, -9.76, -9.76, -9.5, -9.76, -9.76, -9.48, -9.1, -9.1, -9.1, -8.96, -8.43, -8.0, -8.0, -8.0, -6.92, -6.28, -5.08, -5.06, -5.08, -5.08, -4.47, -3.84, -3.42, -2.75, -2.75, -2.23, -2.23, -1.12, -0.5, 0.0, 0.57, 1.9, 2.8, 2.24, 2.68, 2.6, 2.84, 0.0, 0.0, 0.0, 0.0, 0.0, 0.0, 0.0, 1.58, 2.68, 1.58, 0.0, -1.4, -1.0, 0.0, 1.24, 1.58, 0.8, -0.71, -1.49, 0.0, 2.24, 2.24, 4.02, 3.58, 2.68, 0.0, 0.0, 0.0, -0.63, -0.0, 0.89, 0.0, -0.73, -2.29, -3.16, -3.32, -3.07, -2.6, -1.49, -0.6, 0.0, 0.57, 0.65, 0.0, -1.2, -2.5, -3.51, -6.11, -4.4, -3.49, -2.07, -2.0, -2.66, -2.07, -1.8, -1.84, -2.4, -3.58, -3.58, -9.76, -10.13, -10.13, -9.86, -9.86, -9.76, -9.76, -9.63, -9.1, -9.1, -9.1, -8.82, -8.27, -8.27, -7.64, -7.44, -7.17, -6.59, -5.71, -5.38, -5.08, -4.81, -4.47, -4.08, -3.4, -2.73, -2.71, -2.21, -2.21, -1.71, -0.57, 0.0, 0.0, 0.0, 0.95, 1.79, 1.7, 1.58, 0.0, 0.0, -1.4, 0.0, 0.0, 0.0, 0.0, 0.0, 3.13, 3.13, 2.8, 1.4, 1.6, 1.6, 2.48, 3.48, 2.73, 1.19, 0.0, 0.0, 3.49, 5.2, 5.2, 4.24, 2.53, 1.6, 0.0, 0.0, 0.0, -0.89, -0.95, -0.89, -1.58, -1.4, -2.53, -3.6, -4.43, -4.02, -2.68, -0.89, 0.0, 0.0, 0.0, 0.57, 0.53, 0.0, 0.0, -0.65, -4.47, -4.43, -4.0, -3.48, -3.76, -2.73, -2.51, -2.48, -2.0, -2.53, -3.32, -3.32, -10.3, -10.3, -10.3, -9.86, -9.86, -10.13, -9.76, -9.63, -9.48, -9.1, -9.1, -8.82, -8.43, -7.9, -7.72, -7.09, -7.17, -6.92, -6.32, -5.38, -5.1, -5.1, -4.47, -3.42, -2.73, -2.21, -2.83, -2.83, -2.19, -2.33, -1.71, -1.12, 0.0, 0.0, 0.65, 0.63, 0.0, 0.0, -0.85, -0.85, -0.8, -0.63, -0.63, -0.95, 0.0, 2.4, 3.58, 2.8, 3.2, 2.53, 3.16, 3.16, 3.48, 3.48, 3.79, 2.4, 2.6, 3.22, 4.43, 5.01, 3.79, 2.48, 1.27, 1.27, 0.0, 0.0, 0.0, -0.8, -3.13, -3.13, -1.79, -0.63, -0.95, -2.24, -3.58, -3.82, -3.07, -1.86, -0.63, -0.45, -0.89, -1.26, -0.54, -0.59, 0.0, -0.54, -2.4, -4.92, -5.31, -5.34, -4.43, -2.73, -2.79, -3.48, -3.43, -2.79, -3.49, -3.49, -10.3, -10.3, -10.3, -10.04, -10.04, -10.13, -9.76, -9.63, -9.48, -9.1, -8.96, -8.82, -8.43, -7.9, -7.35, -7.41, -7.44, -6.92, -5.71, -5.1, -4.45, -5.09, -5.1, -3.9, -3.9, -3.17, -3.81, -3.8, -2.99, -3.35, -2.73, -1.14, 0.0, 0.59, 0.53, 0.0, -0.65, -1.84, -1.49, -1.49, -1.24, -0.8, -0.6, 0.0, 1.2, 3.2, 3.2, 3.2, 2.53, 2.84, 3.16, 3.48, 3.48, 3.79, 4.65, 4.43, 3.76, 3.76, 3.49, 3.79, 2.73, 1.27, 1.13, 0.0, 0.0, 0.6, 0.95, 0.0, -2.79, -1.98, 0.0, 0.7, 1.55, 0.0, -0.61, -2.12, -2.91, -3.83, -3.32, -2.6, -3.07, -2.68, -2.86, -2.53, -1.84, -1.84, -2.53, -3.6, -6.66, -6.58, -5.34, -4.12, -3.43, -3.79, -3.79, -3.07, -2.79, -2.79, -10.68, -10.68, -10.68, -10.41, -10.3, -10.13, -9.76, -9.63, -9.48, -9.1, -8.96, -8.82, -8.43, -7.9, -7.9, -7.35, -7.09, -7.35, -6.44, -4.65, -5.49, -5.72, -5.72, -5.69, -6.06, -5.69, -5.3, -5.1, -5.09, -4.45, -2.77, -0.55, 0.59, 1.16, 0.53, 0.0, -0.65, -1.16, -1.13, -1.13, -1.16, -0.61, -0.61, 0.0, 1.84, 2.23, 2.84, 2.84, 2.53, 2.84, 2.84, 3.72, 4.4, 4.8, 2.8, 2.84, 5.06, 2.84, 1.6, 1.41, 1.27, 0.0, 0.0, 0.0, 0.45, 1.6, 1.6, 0.95, 0.0, 0.76, 2.26, 3.11, 3.14, 1.53, -0.8, -2.31, -2.41, -3.58, -6.07, -4.02, -3.58, -3.39, -3.07, -3.07, -2.79, -2.23, -1.84, -1.16, -3.82, -4.43, -6.22, -6.0, -5.09, -4.73, -4.37, -4.46, -3.72, -3.72, -10.68, -10.68, -10.41, -10.41, -10.3, -10.13, -9.76, -9.63, -9.48, -9.35, -8.96, -8.82, -8.43, -8.27, -7.9, -7.44, -7.09, -7.35, -7.23, -7.06, -7.35, -6.64, -6.64, -6.59, -6.59, -6.32, -5.69, -5.71, -5.71, -4.75, -2.2, 0.0, 1.16, 1.16, 1.2, 0.54, 0.0, -0.53, -0.61, -0.51, -0.51, 0.0, 0.0, 0.51, 1.27, 2.48, 2.84, 2.53, 2.53, 2.53, 2.53, 3.82, 4.77, 5.2, 5.2, 2.5, 4.46, 4.46, 3.22, 1.6, 0.0, 0.0, 0.0, 0.0, 1.2, 1.58, 1.6, 2.24, 3.6, 4.46, 5.37, 5.28, 3.82, 0.79, -2.33, -5.29, -6.35, -3.97, -5.86, -6.36, -4.02, -3.58, -2.8, -1.88, -1.2, -1.16, 0.0, 0.0, 0.0, -2.5, -4.43, -6.36, -6.07, -4.93, -5.2, -5.31, -4.41, -4.41, -10.68, -10.68, -10.41, -10.68, -10.3, -10.3, -10.02, -9.63, -9.48, -9.35, -8.96, -8.82, -8.43, -8.43, -8.27, -8.0, -7.44, -7.44, -8.0, -7.73, -7.17, -6.92, -6.92, -6.64, -6.34, -5.72, -5.1, -4.47, -4.47, -2.82, -1.11, 0.0, 1.16, 1.2, 1.2, 0.54, 0.0, 0.0, -0.53, -0.61, -0.51, -0.51, 0.0, 0.51, 1.33, 1.61, 2.53, 1.4, 2.21, 2.8, 3.2, 3.82, 4.34, 4.77, 4.4, 5.2, 4.8, 6.4, 5.75, 2.53, 0.0, -0.45, 0.0, 1.2, 2.54, 2.54, 2.54, 1.7, 2.24, 2.68, 2.97, 3.91, 3.09, 0.0, -6.32, -8.24, -8.57, -6.35, -3.58, -4.66, -5.34, -3.53, -2.68, -1.58, -1.2, -0.53, 0.0, -0.54, -1.84, -1.27, -3.16, -5.02, -5.6, -4.66, -4.11, -4.11, -4.09, -4.09, -10.68, -10.68, -10.68, -10.68, -10.3, -10.3, -10.02, -9.63, -9.1, -9.35, -8.96, -8.82, -8.43, -8.43, -8.27, -8.0, -7.44, -7.44, -7.51, -7.55, -6.64, -6.32, -6.32, -6.59, -6.34, -6.01, -4.83, -4.05, -3.42, -2.16, -0.61, 0.0, 0.51, 0.65, 0.54, 0.54, 0.0, 0.0, -0.65, -0.53, -0.53, 0.0, 0.0, 0.65, 1.2, 1.61, 1.4, 1.2, 1.9, 2.8, 3.39, 3.82, 4.24, 4.34, 4.77, 4.77, 3.58, 5.59, 5.75, 3.2, 0.0, -0.0, 0.6, 2.12, 3.04, 3.04, 2.6, 1.79, 1.34, 0.45, 0.0, -0.89, 0.45, -1.79, -5.26, -7.2, -9.52, -8.58, -4.73, -3.13, -4.93, -5.05, -3.53, -3.13, -2.91, -2.5, -2.21, -2.79, -4.09, -4.43, -3.38, -4.75, -4.27, -4.24, -3.97, -3.87, -4.27, -4.27, -10.68, -10.68, -10.68, -10.41, -10.3, -10.3, -10.02, -9.63, -9.1, -9.35, -8.96, -8.82, -8.43, -8.43, -8.27, -8.0, -7.8, -7.17, -7.51, -7.23, -6.65, -5.72, -5.72, -5.71, -6.04, -5.72, -5.09, -4.03, -3.4, -2.29, -1.16, -0.55, 0.0, 0.0, 0.0, 0.0, 0.0, 0.0, 0.0, -0.54, 0.0, 0.0, 0.0, 0.54, 1.24, 1.24, 1.2, 1.2, 1.9, 2.8, 3.39, 3.39, 3.82, 4.02, 4.02, 4.47, 2.24, 2.24, 3.04, 3.6, 1.2, -0.0, 0.6, 2.23, 2.8, 3.95, 3.13, 4.47, 1.79, 0.0, -2.12, -1.79, -0.0, 0.6, -1.26, -4.92, -6.99, -9.4, -7.64, -3.32, -3.39, -5.86, -6.42, -5.78, -4.92, -4.87, -4.73, -5.44, -6.0, -4.66, -4.43, -3.16, -2.53, -2.4, -3.09, -4.3, -4.93, -4.93, -10.68, -10.68, -10.68, -10.41, -10.68, -10.3, -10.02, -9.63, -9.63, -9.35, -8.96, -8.82, -8.43, -8.43, -8.43, -8.0, -8.0, -7.51, -7.51, -7.23, -6.95, -6.35, -5.72, -5.72, -5.72, -5.72, -5.1, -4.46, -3.4, -2.77, -1.67, -1.19, -1.11, -0.51, 0.0, 0.0, 0.0, 0.0, 0.0, 0.0, 0.0, 0.0, 0.71, 0.57, 0.57, 0.57, 0.71, 0.54, 1.0, 1.9, 1.9, 2.8, 3.13, 3.58, 4.02, 4.02, 3.58, 1.79, 1.34, 1.26, 0.71, 0.0, 0.63, 1.86, 3.2, 3.47, 3.13, 3.58, 2.24, -1.6, -3.83, -2.86, -0.71, 0.54, 0.54, 0.54, 0.0, -3.32, -7.95, -5.34, -3.53, -4.3, -7.33, -7.92, -7.6, -7.15, -7.11, -6.11, -5.16, -3.87, -3.07, -1.8, -1.33, -0.65, -1.86, -3.82, -4.52, -4.52, -10.68, -10.68, -10.68, -10.41, -10.68, -10.3, -10.3, -9.63, -9.63, -9.35, -8.96, -8.82, -8.43, -8.43, -8.43, -8.0, -8.0, -7.51, -7.51, -7.51, -6.95, -6.67, -6.35, -5.72, -5.72, -5.36, -5.1, -4.46, -3.42, -3.0, -2.36, -1.73, -1.73, -1.11, -0.61, 0.0, 0.0, 0.0, 0.0, 0.0, 0.0, 0.0, 0.57, 0.57, 0.57, 0.57, 0.0, 0.0, 0.54, 1.24, 1.24, 1.86, 3.13, 3.58, 4.02, 4.02, 3.13, 2.68, 1.79, 0.0, 0.0, 0.87, 1.24, 1.79, 2.54, 2.68, 2.68, 2.24, 0.89, -0.89, -2.86, -3.79, -2.2, 0.0, 0.73, 3.64, 2.53, -1.26, -4.47, -6.66, -6.07, -4.47, -5.78, -6.85, -6.11, -5.36, -4.92, -4.43, -4.02, -3.58, -3.58, -1.84, -1.27, -0.57, -1.13, -2.53, -3.35, -3.35, -10.68, -10.68, -10.41, -10.41, -10.68, -10.3, -10.3, -10.16, -9.63, -9.35, -9.35, -8.96, -8.82, -8.43, -8.43, -8.0, -8.0, -7.8, -7.51, -7.51, -7.23, -6.97, -6.97, -6.35, -6.0, -5.45, -5.1, -4.08, -3.68, -2.8, -2.82, -3.49, -3.22, -2.86, -1.84, -0.54, 0.0, 0.0, 0.0, 0.0, 0.0, 0.0, 0.0, 0.6, 0.0, 0.0, 0.0, 0.0, 0.0, 0.0, 0.6, 1.6, 2.68, 3.13, 1.79, 1.79, 2.68, 2.68, 0.95, 0.0, 0.0, 0.76, 2.0, 1.9, 3.82, 1.79, 1.79, 0.89, 0.0, -1.34, -2.6, -3.48, -4.11, -1.41, 0.7, 1.88, 2.4, 0.0, -4.02, -6.26, -6.98, -5.64, -4.47, -4.52, -5.72, -5.78, -4.92, -4.02, -3.13, -3.39, -3.98, -3.98, -2.07, -2.0, -1.76, -1.8, -2.51, -2.51, -10.68, -10.68, -10.41, -10.68, -10.68, -10.3, -10.55, -10.16, -10.02, -9.35, -9.35, -8.96, -8.82, -8.43, -8.43, -8.27, -8.0, -8.0, -7.51, -7.51, -7.23, -7.55, -6.97, -6.97, -6.35, -5.72, -5.1, -4.47, -3.85, -3.84, -3.49, -3.49, -3.49, -2.86, -1.61, -0.54, 0.0, 0.0, 0.0, 0.0, 0.0, 0.0, 0.0, 0.0, 0.0, 0.0, 0.0, 0.0, 0.0, 0.0, 0.0, 1.6, 2.68, 2.68, 2.68, 1.79, 2.68, 2.24, 0.95, -0.0, 0.0, 0.0, 0.7, 1.6, 1.58, 3.82, 1.2, 0.0, -0.89, -1.34, -1.2, -1.6, -3.07, -2.86, -1.2, -0.45, 0.0, 0.0, -1.7, -4.87, -5.77, -5.57, -4.44, -4.43, -5.94, -7.01, -6.58, -3.82, -2.91, -3.39, -4.43, -4.92, -3.49, -3.15, -2.73, -2.48, -2.48, -2.48, -10.68, -10.68, -10.41, -10.68, -10.68, -10.3, -10.55, -10.16, -10.02, -9.63, -9.35, -8.96, -8.82, -8.82, -8.43, -8.43, -8.0, -8.0, -7.73, -7.51, -7.55, -7.55, -7.27, -6.97, -6.35, -6.34, -5.71, -5.08, -4.47, -4.12, -3.83, -4.11, -3.48, -2.84, -1.88, -1.24, -0.71, -0.57, -0.8, -0.6, 0.0, 0.0, -0.6, 0.0, 0.0, 0.0, 0.0, -0.57, -1.26, -0.6, 0.0, 1.79, 2.24, 2.24, 2.24, 2.24, 2.68, 2.24, 0.89, 0.0, 0.0, 0.0, 0.0, 0.71, 1.24, 1.6, 1.6, 0.0, -1.34, -0.89, -0.8, -1.6, -1.6, -3.72, -4.4, -3.13, -2.5, -2.24, -1.86, -2.8, -3.39, -4.8, -4.47, -3.98, -3.39, -3.6, -5.31, -5.05, -4.3, -4.87, -5.32, -5.36, -5.32, -4.09, -3.78, -3.15, -2.73, -2.73, -10.58, -10.58, -10.41, -10.68, -10.68, -10.3, -10.3, -10.16, -10.02, -9.63, -9.63, -9.35, -8.96, -8.82, -8.82, -8.82, -8.18, -8.0, -7.73, -8.08, -7.55, -7.55, -7.55, -7.23, -6.95, -6.64, -5.71, -5.69, -5.06, -4.45, -4.12, -4.07, -3.78, -2.79, -1.61, -1.24, -1.24, -0.99, -1.26, -0.95, -0.95, -0.6, -0.6, -0.6, -0.95, 0.0, 0.0, -0.8, -1.26, 0.0, 1.34, 1.79, 2.24, 2.24, 2.24, 2.24, 1.79, 1.79, 0.89, 0.45, 0.0, 0.0, 0.0, 0.0, 0.0, 0.95, 1.2, 0.0, -0.89, -1.34, -1.79, -2.21, -0.82, -1.49, -4.6, -4.74, -3.58, -3.32, -3.13, -3.32, -3.45, -5.26, -5.36, -3.87, -2.15, -1.9, -2.79, -4.0, -5.2, -6.22, -6.58, -6.21, -5.81, -4.52, -4.27, -3.78, -3.15, -3.15, -10.58, -10.58, -10.58, -10.68, -10.68, -10.3, -10.3, -10.16, -10.16, -10.02, -9.63, -9.35, -8.96, -8.82, -8.82, -8.55, -8.55, -8.37, -8.08, -8.08, -7.81, -7.81, -7.55, -7.51, -6.92, -6.59, -6.28, -5.98, -5.06, -5.06, -4.43, -4.07, -3.43, -2.79, -1.9, -1.58, -1.58, -1.58, -1.26, -1.2, -1.2, -0.95, -0.95, -0.6, -0.95, -0.89, -0.63, -1.26, -0.95, 0.0, 1.34, 1.79, 1.79, 1.79, 1.79, 1.79, 1.79, 1.79, 1.6, 0.63, 0.0, 0.0, 0.0, 0.0, 0.0, 0.0, 0.0, -0.0, -1.34, -1.7, -2.54, -1.79, -0.71, 0.0, -1.56, -4.68, -5.3, -3.04, -3.07, -3.58, -5.44, -6.36, -5.57, -3.39, -1.49, -0.95, -1.7, -2.24, -2.68, -3.13, -3.97, -4.87, -4.92, -4.88, -4.93, -4.66, -3.78, -3.78, -10.58, -10.58, -10.58, -10.83, -10.68, -10.68, -10.3, -10.55, -10.16, -10.02, -9.63, -9.63, -9.35, -8.96, -8.55, -8.55, -8.55, -8.55, -8.08, -8.08, -8.08, -8.08, -7.51, -7.51, -6.92, -6.87, -6.57, -6.15, -5.09, -5.01, -4.74, -4.65, -3.43, -2.79, -1.9, -1.9, -1.86, -1.86, -1.7, -1.6, -1.6, -1.6, -1.2, -0.95, -0.95, -1.6, -1.26, -1.2, 0.0, 0.89, 1.79, 1.79, 1.79, 1.79, 1.79, 1.79, 1.34, 1.34, 1.6, 1.6, 0.63, 0.0, 0.0, 0.0, -0.63, -0.63, -0.63, -0.89, -2.24, -2.12, -1.34, 0.0, -0.89, -0.76, -0.74, -3.16, -4.6, -2.15, -1.26, -1.61, -3.15, -4.36, -3.55, -1.65, -0.56, -1.12, -1.76, -1.61, -1.26, -1.26, -2.12, -3.13, -4.43, -4.47, -4.77, -4.52, -4.27, -4.27, -10.83, -10.83, -10.58, -10.83, -10.68, -10.68, -10.3, -10.55, -10.16, -10.02, -9.63, -9.63, -9.1, -9.35, -8.55, -8.55, -8.55, -8.55, -8.55, -8.29, -8.08, -8.08, -7.73, -7.51, -7.44, -7.15, -6.79, -6.51, -5.86, -4.81, -4.65, -4.29, -3.43, -2.79, -2.5, -2.15, -2.4, -2.0, -2.12, -1.7, -1.7, -1.2, -1.2, -1.2, -1.2, -1.2, -1.6, -0.95, 0.0, 0.89, 1.34, 1.34, 1.34, 1.79, 1.79, 1.79, 1.79, 1.2, 1.6, 1.6, 1.26, 0.4, 0.0, 0.0, 0.0, -0.45, -0.63, 0.0, -0.8, -1.6, 0.0, 1.34, -0.45, -2.21, -2.4, -1.52, -1.49, 0.0, 0.54, 0.7, 0.0, -0.65, -0.67, 0.0, 0.0, -0.58, -1.69, -2.2, -1.58, -0.99, -0.71, -1.86, -3.13, -4.02, -4.02, -4.24, -4.0, -4.0, -11.22, -11.22, -11.22, -10.83, -10.83, -10.68, -10.3, -10.55, -10.16, -10.16, -10.02, -9.63, -9.63, -9.1, -9.1, -8.55, -8.93, -8.93, -8.93, -8.29, -8.29, -8.08, -8.0, -7.44, -7.44, -6.79, -6.7, -6.51, -6.41, -5.21, -4.29, -4.0, -3.43, -2.79, -2.68, -2.91, -2.4, -2.4, -2.17, -2.12, -1.7, -1.6, -1.34, -1.34, -1.2, -1.6, -1.6, -0.95, 0.0, 0.89, 1.34, 1.34, 1.34, 1.34, 1.34, 1.34, 1.6, 1.6, 1.6, 1.6, 1.58, 1.58, 1.9, 1.9, 0.63, 0.0, 0.0, 0.0, 0.0, 0.0, 0.95, 1.2, 0.0, -4.81, -5.49, -2.23, 0.0, 2.4, 3.47, 2.83, 1.39, 0.0, 0.0, -0.67, -0.67, -0.55, -1.11, -1.04, -1.24, -0.95, -0.71, -0.65, -1.24, -3.13, -4.02, -3.87, -3.6, -3.6, -11.22, -11.22, -11.22, -10.83, -10.83, -10.68, -10.3, -10.55, -10.16, -10.16, -10.02, -9.63, -9.63, -9.1, -9.1, -9.1, -9.1, -8.93, -8.93, -8.93, -8.55, -8.37, -8.0, -7.44, -7.35, -7.07, -6.7, -6.41, -6.03, -5.21, -4.55, -4.0, -3.72, -3.35, -3.07, -2.91, -2.91, -2.6, -2.17, -2.12, -1.7, -1.79, -1.79, -1.79, -1.7, -1.7, -1.7, -1.34, 0.0, 1.34, 1.34, 1.34, 1.34, 1.34, 1.34, 1.34, 1.6, 1.6, 1.7, 2.12, 2.12, 2.4, 1.9, 1.9, 1.2, 0.0, 0.0, 0.0, 0.0, 0.0, 0.0, 0.0, 0.0, -3.09, -3.78, -1.54, 2.39, 5.3, 5.4, 3.91, 0.71, -0.68, -1.39, -1.39, -0.7, 0.0, 0.0, 0.66, 0.0, -0.63, -0.8, -0.53, 0.0, -1.2, -3.09, -4.02, -3.82, -3.82, -10.83, -10.83, -11.22, -10.83, -10.83, -10.68, -10.3, -10.55, -10.55, -10.16, -10.16, -10.02, -9.63, -9.63, -9.48, -9.1, -9.1, -9.1, -8.93, -8.93, -8.55, -8.0, -8.27, -7.72, -7.35, -7.07, -6.95, -6.41, -5.86, -5.21, -4.55, -3.64, -3.35, -3.6, -3.2, -3.39, -2.91, -2.63, -2.6, -2.17, -2.24, -1.79, -1.79, -1.79, -2.12, -2.17, -2.24, -1.34, 0.89, 1.34, 1.34, 1.34, 1.34, 1.34, 1.34, 1.34, 1.6, 1.6, 1.7, 2.12, 2.17, 1.86, 1.9, 0.63, 0.6, 0.0, 0.0, 0.0, 0.0, -0.45, 0.0, 0.0, 0.0, 0.0, 0.0, 0.0, 0.74, 3.02, 3.07, 1.33, 0.0, -0.71, -1.28, -0.67, 0.0, 0.0, 0.63, 1.13, 1.24, 0.0, -0.6, -0.54, 0.0, 0.0, -1.61, -3.07, -3.98, -3.98, -10.83, -10.83, -11.22, -10.83, -10.83, -10.68, -10.3, -10.3, -10.55, -10.16, -10.16, -10.02, -10.02, -9.63, -9.63, -9.48, -9.1, -9.1, -9.1, -8.93, -8.55, -8.43, -7.9, -7.52, -7.23, -6.95, -6.56, -6.03, -5.75, -5.21, -4.55, -3.88, -3.6, -3.7, -3.87, -3.87, -3.53, -3.07, -2.6, -2.17, -2.24, -2.24, -2.24, -1.79, -2.17, -2.6, -2.17, -0.89, 1.2, 1.34, 1.34, 1.34, 1.79, 1.79, 1.79, 1.6, 1.6, 1.6, 2.12, 2.12, 2.6, 2.6, 1.9, 0.63, 0.0, 0.0, 0.0, 0.0, 0.0, 0.0, 0.0, 0.0, 1.58, 2.32, 1.47, -0.77, -2.35, -2.31, -3.11, -2.7, -2.17, -0.71, 0.0, 0.0, 0.0, 0.63, 1.35, 1.27, 1.16, 0.0, -0.6, -0.71, -0.61, 0.0, 0.0, -1.9, -3.07, -3.53, -10.83, -10.83, -11.22, -10.83, -10.83, -10.83, -10.68, -10.3, -10.55, -10.55, -10.16, -10.16, -10.02, -9.63, -9.63, -9.48, -9.48, -9.1, -9.1, -8.93, -8.55, -8.43, -7.9, -7.76, -7.48, -6.95, -6.8, -6.28, -5.75, -5.21, -4.55, -4.4, -4.11, -4.3, -4.34, -3.98, -3.53, -3.07, -2.63, -2.68, -2.68, -2.24, -2.24, -1.79, -2.6, -2.91, -2.12, 0.0, 1.2, 1.34, 1.34, 1.34, 1.79, 1.79, 1.79, 1.7, 1.6, 1.7, 2.12, 2.17, 2.6, 2.6, 2.4, 0.63, 0.0, 0.0, 0.0, 0.0, 0.0, 0.0, 0.0, 0.0, 0.0, 0.0, 0.76, 0.0, -2.2, -5.59, -6.44, -5.62, -3.33, -0.72, 0.0, 0.0, 0.67, 1.3, 1.3, 1.35, 1.11, 0.51, 0.0, -0.53, -0.61, -0.79, 0.0, -0.7, -1.88, -3.07, -10.83, -10.83, -11.22, -10.83, -10.83, -10.83, -10.68, -10.3, -10.55, -10.55, -10.16, -10.16, -10.02, -10.02, -9.63, -9.63, -9.48, -9.48, -9.1, -9.1, -8.82, -8.43, -8.15, -7.76, -7.48, -6.95, -6.8, -6.28, -5.75, -5.6, -5.08, -4.8, -4.6, -4.77, -4.77, -4.44, -3.58, -3.07, -2.63, -2.68, -2.68, -2.68, -2.24, -2.17, -1.6, -2.6, -1.34, 0.89, 1.34, 1.2, 1.2, 1.2, 1.79, 1.79, 1.79, 1.6, 1.6, 1.7, 2.12, 2.17, 2.6, 2.6, 2.17, 2.4, 1.9, 1.2, 0.0, 0.0, 0.63, 1.34, 1.34, 0.0, -1.79, -1.58, 0.0, 2.29, 0.0, -2.98, -5.21, -4.87, -2.2, 0.0, 0.0, 0.67, 1.45, 1.45, 1.4, 1.36, 0.7, 0.7, 0.0, -0.66, -1.27, -1.47, -1.55, -0.81, -1.27, -1.88, -10.83, -10.83, -10.83, -10.83, -10.83, -10.83, -10.68, -10.3, -10.55, -10.55, -10.55, -10.16, -10.16, -10.02, -9.63, -9.63, -9.63, -9.48, -9.1, -9.1, -8.82, -8.68, -8.15, -8.0, -7.48, -7.2, -6.8, -6.28, -6.0, -5.6, -5.31, -5.31, -5.09, -5.24, -5.33, -4.44, -4.02, -3.09, -3.13, -3.13, -2.68, -2.68, -2.24, -2.17, -2.17, -0.89, 0.0, 0.89, 0.89, 0.95, 0.95, 1.2, 1.34, 1.34, 1.34, 1.34, 1.6, 1.7, 2.12, 2.17, 2.24, 2.68, 3.13, 2.8, 2.8, 2.8, 0.6, 1.9, 1.34, 1.79, 1.34, 0.0, -2.24, -2.24, -0.8, 0.71, 0.71, 0.0, -1.16, -1.33, 0.0, 0.59, 1.36, 2.06, 2.06, 1.36, 0.67, 0.64, 0.0, 0.0, 0.0, -0.7, -1.47, -2.4, -3.0, -2.11, -2.2, -2.2, -10.83, -10.83, -10.83, -10.83, -10.83, -10.83, -10.68, -10.3, -10.55, -10.55, -10.55, -10.16, -10.16, -10.02, -10.02, -9.63, -9.63, -9.48, -9.48, -8.96, -8.82, -8.68, -8.15, -8.0, -7.48, -7.31, -6.8, -6.28, -6.1, -6.0, -5.81, -5.81, -5.57, -5.7, -5.34, -4.89, -3.98, -3.53, -3.13, -3.13, -3.13, -2.68, -2.24, -2.24, -1.79, -0.89, 0.0, 0.0, -0.0, -0.0, -0.0, 0.63, 0.89, 0.89, 1.34, 1.34, 1.7, 1.7, 2.12, 2.24, 2.24, 2.68, 2.68, 2.68, 2.8, 2.8, 2.8, 2.8, 1.79, 1.79, 1.34, 0.0, -1.79, -3.13, -2.24, -0.89, 0.0, 0.57, 0.61, 1.33, 2.88, 3.69, 4.12, 3.53, 2.76, 1.54, 0.74, 0.0, 0.0, -0.69, -0.74, -1.4, -2.26, -3.09, -3.07, -2.3, -2.3, -2.3, -10.83, -10.83, -10.83, -10.83, -10.83, -10.83, -10.68, -10.68, -10.55, -10.55, -10.55, -10.55, -10.16, -10.16, -10.02, -9.63, -9.63, -9.63, -9.48, -8.96, -8.43, -8.28, -8.4, -8.0, -7.71, -7.31, -6.8, -7.01, -6.51, -6.1, -6.3, -5.88, -6.04, -6.04, -5.7, -4.89, -3.98, -3.53, -3.53, -3.58, -3.13, -2.68, -2.68, -1.79, -1.34, -0.89, 0.0, -0.0, -0.0, -0.0, -0.0, 0.0, 0.89, 1.34, 1.2, 1.34, 1.79, 1.79, 2.24, 2.24, 2.24, 2.68, 2.68, 3.13, 3.13, 2.8, 2.8, 3.2, 1.79, 1.34, 0.63, 0.0, -1.34, -2.54, -2.6, -1.7, 0.0, 0.7, 2.9, 5.38, 6.97, 7.67, 6.27, 4.77, 3.68, 2.06, 0.69, 0.0, -0.64, -1.4, -1.55, -2.06, -3.09, -3.79, -2.84, -2.84, -2.84, -2.84, -10.83, -10.83, -10.83, -10.83, -10.83, -10.83, -10.83, -10.68, -10.55, -10.55, -10.55, -10.55, -10.16, -10.16, -10.02, -9.63, -9.63, -9.63, -9.48, -8.96, -8.68, -8.28, -8.4, -8.0, -7.81, -7.31, -7.31, -7.01, -6.6, -6.51, -6.3, -6.3, -6.47, -6.47, -6.16, -5.24, -4.44, -3.98, -3.98, -3.58, -3.58, -3.13, -2.68, -2.24, -1.34, -1.34, -0.89, -0.0, -0.0, -0.0, 0.0, 0.0, 0.89, 1.34, 1.34, 1.79, 1.79, 1.79, 2.24, 2.24, 2.68, 2.68, 2.68, 2.68, 3.13, 2.8, 2.8, 1.2, 1.2, 0.89, 0.89, 0.0, -0.63, -1.9, -1.49, 0.0, 0.0, 0.76, 2.31, 5.52, 8.66, 9.23, 7.62, 4.86, 3.53, 2.15, 1.33, 0.0, -0.71, -1.36, -3.14, -2.66, -2.79, -2.86, -2.8, -3.14, -3.14, -3.14, -10.83, -10.83, -10.83, -10.83, -10.83, -10.83, -10.83, -10.68, -10.55, -10.55, -10.55, -10.55, -10.55, -10.16, -10.02, -10.02, -9.63, -9.63, -9.48, -9.35, -8.68, -8.51, -8.1, -8.22, -7.81, -7.71, -7.51, -7.09, -7.01, -6.6, -6.79, -6.36, -6.51, -6.47, -6.04, -5.26, -4.88, -4.44, -4.44, -4.02, -3.58, -3.13, -2.68, -2.24, -1.79, -1.2, -0.95, -0.63, -0.0, -0.0, 0.0, 0.0, 0.89, 1.34, 1.34, 1.7, 1.79, 1.79, 2.24, 2.24, 2.68, 2.68, 2.68, 3.13, 2.63, 3.13, 2.8, 1.2, 1.34, 1.34, 0.89, 0.0, 0.0, 0.0, 0.0, 0.85, 0.79, 0.0, 1.55, 4.46, 7.52, 8.46, 6.28, 4.86, 3.6, 2.1, 0.7, 0.0, -1.52, -2.33, -3.4, -2.07, -2.21, -2.6, -3.51, -4.0, -4.0, -4.0, -10.83, -10.83, -10.83, -10.83, -10.83, -10.83, -10.83, -10.83, -10.55, -10.55, -10.55, -10.55, -10.55, -10.16, -10.16, -10.02, -9.63, -9.63, -9.1, -9.35, -8.68, -8.51, -8.1, -8.22, -7.81, -7.81, -7.51, -7.51, -7.01, -7.01, -6.79, -6.79, -6.94, -6.51, -6.04, -5.7, -5.24, -4.89, -4.88, -4.47, -4.02, -3.58, -3.13, -2.68, -2.12, -1.6, -1.2, -0.63, -0.0, -0.0, 0.0, 0.0, 0.89, 0.89, 1.7, 1.7, 1.79, 1.79, 2.24, 2.24, 2.68, 2.68, 3.13, 3.13, 3.13, 3.13, 3.13, 3.13, 3.13, 1.34, 1.34, 0.63, 0.6, 0.0, 0.0, 0.0, 0.0, 0.0, 1.7, 3.79, 5.69, 5.51, 6.09, 6.4, 5.02, 2.15, 0.0, -1.36, -1.58, -1.33, -1.33, -1.84, -1.88, -2.4, -3.53, -4.4, -4.4, -4.4, -10.83, -10.83, -10.83, -10.83, -10.83, -10.83, -10.83, -10.83, -10.55, -10.55, -10.55, -10.55, -10.55, -10.16, -10.16, -10.02, -9.63, -9.63, -9.1, -9.35, -8.96, -8.51, -8.1, -8.22, -7.81, -7.81, -7.51, -7.51, -7.09, -7.01, -7.21, -6.79, -6.94, -6.94, -6.6, -5.7, -5.78, -5.33, -4.89, -4.47, -4.02, -3.58, -3.13, -2.68, -2.24, -1.79, -1.34, -0.63, -0.0, -0.0, 0.0, 0.0, 0.45, 0.89, 1.7, 1.7, 1.79, 1.79, 1.79, 2.24, 2.68, 2.68, 3.13, 3.13, 3.13, 3.58, 3.58, 3.58, 3.13, 0.89, 0.89, 0.63, 0.63, 0.0, 0.0, 0.0, 0.0, 0.0, 2.53, 4.11, 3.35, 3.91, 6.87, 7.73, 4.8, 1.4, -0.71, -1.41, -0.63, -0.59, -1.33, -1.84, -1.84, -2.5, -3.39, -4.0, -4.0, -4.0, -10.83, -10.83, -10.83, -10.83, -10.83, -10.83, -10.83, -10.83, -10.55, -10.55, -10.55, -10.55, -10.55, -10.16, -10.16, -10.02, -9.63, -9.63, -9.1, -9.35, -9.2, -8.51, -8.1, -8.22, -8.22, -7.81, -7.93, -7.51, -7.09, -7.09, -7.21, -7.21, -6.94, -6.94, -6.6, -6.16, -5.78, -5.78, -5.33, -4.89, -4.47, -4.02, -3.13, -2.68, -2.24, -1.79, -1.34, -0.63, -0.63, -0.0, 0.0, 0.0, 0.0, 0.89, 1.7, 1.7, 1.7, 1.79, 1.79, 1.79, 2.24, 2.68, 2.68, 3.13, 3.13, 1.79, 1.79, 1.79, 1.79, 1.34, 1.34, 0.45, 0.0, 0.0, 0.0, 0.0, 0.0, 0.85, 1.8, 2.68, 2.53, 3.35, 5.37, 5.59, 2.82, 0.67, -1.27, -1.61, -1.33, -0.63, -0.63, -2.07, -2.51, -2.53, -3.45, -4.0, -4.0, -4.0, -10.83, -10.83, -10.83, -10.83, -10.83, -10.83, -10.83, -10.83, -10.68, -10.55, -10.55, -10.55, -10.55, -10.16, -10.16, -10.02, -9.63, -9.63, -9.35, -9.35, -9.2, -8.51, -8.1, -8.22, -8.22, -7.81, -7.81, -7.51, -7.51, -7.09, -7.09, -7.21, -6.79, -6.94, -6.61, -6.16, -6.16, -5.78, -5.34, -4.89, -4.47, -4.02, -3.58, -3.13, -2.24, -1.79, -1.34, -0.89, -0.89, 0.0, 0.0, 0.0, 0.0, 1.34, 1.6, 1.7, 1.6, 1.34, 1.34, 1.79, 2.24, 2.24, 2.68, 3.13, 3.13, 1.79, 1.79, 1.79, 2.24, 2.24, 2.24, 1.2, 0.0, -0.63, 0.0, 0.0, 0.0, 1.0, 1.2, 1.74, 2.84, 3.16, 2.5, 1.84, 0.72, -0.69, -0.66, -1.88, -2.21, -1.84, -1.35, -2.11, -3.48, -3.84, -3.14, -2.68, -2.68, -2.68, -10.83, -10.83, -10.83, -10.83, -10.83, -10.83, -10.83, -11.08, -11.08, -10.55, -10.55, -10.55, -10.55, -10.16, -10.16, -10.02, -9.63, -9.63, -9.35, -8.96, -9.2, -8.68, -8.51, -8.22, -8.22, -7.81, -7.81, -7.31, -7.51, -7.09, -7.09, -7.21, -7.21, -6.94, -6.61, -6.61, -6.16, -6.16, -5.78, -5.33, -4.89, -4.47, -3.58, -3.13, -2.68, -1.79, -1.34, -0.89, -0.89, 0.0, 0.0, 0.0, 0.0, 1.34, 1.34, 1.6, 1.26, 1.6, 1.34, 1.34, 1.79, 2.24, 2.24, 2.68, 2.63, 2.6, 1.6, 1.6, 1.79, 1.79, 2.24, 2.24, 1.34, 0.89, 0.0, 0.0, 0.0, 0.0, 0.0, 0.0, 1.2, 1.74, 1.26, 0.0, -1.44, -1.32, -0.66, -1.16, -2.5, -3.07, -2.79, -2.88, -2.79, -1.9, -1.2, 0.0, 0.0, 0.0, -11.08, -11.08, -11.08, -11.08, -11.08, -11.08, -11.08, -11.08, -11.08, -10.55, -10.55, -10.55, -10.55, -10.16, -10.16, -10.02, -9.63, -9.63, -9.35, -8.96, -9.2, -8.68, -8.51, -8.22, -8.22, -7.81, -7.81, -7.71, -7.31, -7.51, -7.09, -7.01, -7.21, -6.94, -7.06, -6.61, -6.6, -6.16, -5.7, -5.78, -4.89, -4.44, -4.02, -3.13, -2.68, -1.79, -1.34, -0.89, -0.89, 0.0, 0.0, 0.0, 0.45, 0.89, 1.34, 1.34, 1.26, 1.26, 1.2, 1.34, 1.79, 1.79, 2.24, 2.24, 2.17, 2.17, 1.26, 1.26, 1.2, 1.2, 1.34, 1.34, 1.2, 1.2, 0.89, 0.45, 0.0, 0.0, 0.0, 0.0, 0.0, 1.0, 0.57, -0.76, -1.43, -1.4, -1.41, -1.16, -2.5, -3.07, -3.49, -3.43, -1.88, 0.0, 0.95, 0.89, 0.89, 0.89, -11.08, -11.08, -11.08, -11.08, -11.08, -11.08, -11.08, -11.08, -11.08, -10.55, -10.55, -10.55, -10.55, -10.16, -10.16, -10.02, -9.63, -9.63, -9.35, -8.96, -9.2, -8.68, -8.51, -8.0, -8.22, -8.22, -7.81, -7.71, -7.31, -7.31, -7.01, -7.01, -7.01, -6.79, -6.94, -6.94, -6.61, -6.6, -6.16, -5.7, -5.24, -4.88, -3.98, -3.58, -2.68, -2.24, -1.34, -0.89, -0.89, 0.0, 0.0, 0.0, 0.89, 1.34, 1.2, 1.34, 1.7, 1.26, 1.26, 1.6, 1.34, 1.79, 1.79, 1.79, 1.7, 1.7, 1.49, 0.99, 0.6, 0.63, 0.45, 0.0, 0.0, 0.6, 1.2, 0.89, 0.0, -0.45, -1.34, 0.0, 0.0, 0.0, 0.0, 0.0, 0.0, 0.0, -0.67, -1.27, -2.21, -2.91, -3.45, -2.53, 0.0, 0.57, 0.63, 0.63, 0.63, 0.63, -11.08, -11.08, -11.08, -11.08, -11.08, -11.08, -11.08, -11.08, -11.08, -10.55, -10.55, -10.55, -10.55, -10.16, -10.16, -10.02, -9.63, -9.63, -9.35, -8.96, -8.82, -8.68, -8.28, -8.0, -8.0, -8.22, -7.81, -7.71, -7.31, -7.31, -6.8, -6.8, -7.01, -6.79, -6.79, -6.94, -6.51, -6.47, -6.04, -5.99, -5.7, -5.24, -4.34, -3.98, -3.07, -2.24, -1.79, -1.34, -0.89, 0.0, 0.0, 0.0, 0.89, 1.34, 1.2, 1.6, 1.79, 1.7, 1.86, 1.6, 1.34, 1.34, 1.79, 1.79, 1.79, 1.7, 1.2, 0.6, -0.0, -0.0, -0.0, 0.0, 0.0, 0.0, 0.63, 0.63, 0.0, -0.45, -0.95, -1.26, -0.45, 0.0, 0.63, 1.2, 0.7, 0.0, 0.0, -1.33, -2.5, -3.32, -3.45, -1.86, -0.0, -0.0, 0.0, 0.0, 0.0, 0.0, -11.08, -11.08, -11.08, -11.08, -11.08, -11.08, -11.08, -11.08, -10.68, -10.55, -10.55, -10.55, -10.16, -10.16, -10.02, -10.02, -9.63, -9.48, -9.35, -8.96, -8.82, -8.68, -8.68, -8.4, -8.0, -8.0, -7.6, -7.48, -7.31, -7.31, -7.2, -6.8, -6.8, -6.6, -6.79, -6.79, -6.79, -6.51, -6.47, -6.04, -5.57, -5.09, -4.6, -3.87, -3.39, -2.6, -1.7, -1.2, -0.95, 0.0, 0.0, 0.0, 0.63, 0.95, 1.2, 1.26, 1.7, 1.79, 1.7, 1.6, 1.34, 1.34, 1.34, 1.34, 1.79, 1.79, 1.34, 0.89, 0.95, -0.0, -0.0, 0.0, 0.0, 0.0, 0.0, 0.0, 0.0, -0.89, -0.89, -0.63, -0.63, -0.0, 0.57, 1.2, 0.63, 0.0, 0.0, 0.0, -1.86, -3.58, -3.58, -2.17, -1.2, -0.89, 0.0, 1.2, 1.2, 1.2, -11.08, -11.08, -11.08, -11.08, -11.08, -11.08, -11.08, -11.08, -10.55, -10.55, -10.55, -10.55, -10.16, -10.16, -10.02, -9.63, -9.63, -9.48, -9.35, -8.96, -8.82, -8.68, -8.68, -8.4, -8.0, -8.0, -7.6, -7.48, -7.48, -6.95, -6.95, -6.8, -6.8, -6.8, -6.6, -6.6, -6.79, -6.79, -6.3, -6.3, -5.81, -5.31, -4.8, -4.11, -3.2, -2.91, -1.86, -1.26, -0.8, 0.0, 0.0, 0.0, 0.63, 0.63, 1.2, 1.6, 1.26, 1.79, 1.79, 1.6, 1.34, 1.34, 1.34, 1.34, 1.79, 1.79, 1.34, 1.34, 0.89, -0.0, -0.0, 0.0, 0.0, 0.0, 0.0, 0.0, 0.0, 0.0, -0.63, 0.0, 0.0, -0.0, -0.0, -0.0, 0.0, 0.0, 0.0, 0.63, -0.45, -2.91, -3.32, -2.91, -2.68, -0.63, 1.49, 2.4, 2.4, 2.4, -11.08, -11.08, -11.08, -11.08, -11.08, -11.08, -11.08, -11.08, -10.55, -10.55, -10.55, -10.55, -10.16, -10.16, -10.02, -9.63, -9.63, -9.1, -9.35, -9.35, -8.82, -8.43, -8.68, -8.15, -8.0, -8.0, -7.48, -7.48, -7.48, -6.95, -6.95, -6.56, -6.56, -6.56, -6.8, -6.4, -6.6, -6.6, -6.51, -6.1, -6.0, -5.6, -5.08, -4.4, -3.72, -3.07, -1.9, -1.24, -0.71, -0.57, 0.0, 0.0, 0.0, 0.63, 0.95, 0.6, 1.26, 1.2, 1.34, 1.2, 1.34, 1.34, 1.34, 1.34, 1.34, 1.79, 1.34, 1.34, 0.89, 0.0, 0.0, 0.0, -0.45, 0.0, -0.45, -0.45, -0.63, -0.6, 0.0, 0.0, 0.0, 0.0, -0.4, -0.0, 0.0, 0.0, 0.0, 0.0, 0.0, -2.12, -2.63, -3.07, -1.7, 1.58, 2.91, 3.32, 3.32, 3.32, -11.08, -11.08, -11.08, -11.08, -11.08, -11.08, -11.08, -10.68, -10.55, -10.55, -10.55, -10.16, -10.16, -10.02, -10.02, -9.63, -9.63, -9.1, -9.1, -9.35, -8.82, -8.43, -8.43, -8.15, -7.76, -7.76, -7.61, -7.23, -7.23, -6.7, -6.7, -6.95, -6.41, -6.41, -6.41, -6.41, -6.67, -6.28, -6.28, -6.28, -5.75, -5.37, -4.84, -4.29, -3.78, -2.84, -2.21, -1.4, -1.2, -0.54, 0.0, 0.0, 0.0, 0.0, 0.0, 0.6, 0.6, 0.6, 1.34, 1.34, 1.34, 1.34, 1.34, 1.34, 1.34, 1.34, 1.34, 1.34, 0.89, 0.0, 0.0, 0.0, -0.45, -0.89, -0.89, -0.89, -0.63, -0.4, 0.0, 0.0, 0.0, 0.0, -0.89, -0.45, -0.45, -0.57, -0.53, 0.0, 0.0, -1.24, -2.5, -1.88, 0.0, 2.86, 4.8, 5.05, 5.05, 5.05, -11.08, -11.08, -11.08, -11.08, -11.08, -11.08, -11.08, -10.55, -10.55, -10.55, -10.55, -10.16, -10.16, -10.02, -10.02, -9.63, -9.63, -9.1, -9.1, -8.96, -8.82, -8.43, -8.43, -7.9, -7.76, -7.61, -7.61, -7.23, -7.07, -7.07, -6.7, -6.7, -6.51, -6.15, -6.15, -6.15, -6.41, -6.41, -6.03, -6.03, -5.86, -5.49, -4.94, -4.37, -3.49, -2.86, -2.23, -1.6, -1.33, -0.61, -0.65, 0.0, 0.0, 0.0, 0.0, 0.0, 0.0, 0.6, 0.95, 0.89, 1.34, 1.34, 1.34, 1.34, 1.34, 1.34, 1.34, 1.34, 0.89, 0.63, 0.0, 0.0, -0.45, -1.79, -0.89, -0.89, -0.89, 0.0, 0.0, 0.0, 0.0, -0.45, -0.89, -0.89, -0.95, -0.54, 0.0, 0.0, 0.0, 0.0, -0.7, 0.0, 2.07, 4.12, 5.09, 5.09, 5.09, 5.09, -11.08, -11.08, -11.08, -11.08, -11.08, -11.08, -10.68, -10.55, -10.55, -10.55, -10.55, -10.16, -10.02, -10.02, -10.02, -9.63, -9.63, -9.1, -9.1, -8.55, -8.82, -8.43, -8.27, -7.9, -7.76, -7.61, -7.61, -7.23, -7.07, -7.07, -6.79, -6.23, -6.23, -6.23, -6.15, -6.15, -5.93, -5.93, -5.93, -5.59, -5.59, -5.35, -5.01, -4.43, -3.49, -3.12, -2.22, -1.58, -1.27, -0.59, -0.61, -0.65, 0.0, 0.0, 0.0, 0.0, 0.0, 0.0, 0.0, 0.63, 0.89, 0.89, 1.34, 1.34, 1.34, 1.34, 1.34, 0.89, 0.89, 0.63, 0.0, 0.0, -0.6, 0.0, -0.45, -1.34, -1.34, 0.0, 0.0, 0.0, -1.26, -0.63, -1.6, -1.26, -1.26, -0.65, 0.0, 0.0, 0.72, 0.78, 1.45, 2.2, 3.38, 4.11, 4.43, 4.81, 4.81, 4.81, -11.08, -11.08, -11.08, -11.08, -11.08, -11.08, -10.68, -10.55, -10.55, -10.55, -10.55, -10.16, -10.02, -10.02, -10.02, -9.63, -9.63, -9.1, -9.1, -8.55, -8.82, -8.43, -8.27, -7.9, -7.76, -7.61, -7.61, -7.23, -7.07, -7.07, -6.79, -6.23, -6.23, -6.23, -6.15, -6.15, -5.93, -5.93, -5.93, -5.59, -5.59, -5.35, -5.01, -4.43, -3.49, -3.12, -2.22, -1.58, -1.27, -0.59, -0.61, -0.65, 0.0, 0.0, 0.0, 0.0, 0.0, 0.0, 0.0, 0.63, 0.89, 0.89, 1.34, 1.34, 1.34, 1.34, 1.34, 0.89, 0.89, 0.63, 0.0, 0.0, -0.6, 0.0, -0.45, -1.34, 0.0, 0.0, 0.0, 0.0, -1.26, -0.63, -1.26, -1.49, -1.2, -0.59, 0.0, 0.69, 2.18, 2.9, 3.88, 4.5, 4.71, 4.29, 4.01, 3.72, 3.72, 3.72]}]